Time,TemperatureF,DewpointF,PressureIn,WindDirection,WindDirectionDegrees,WindSpeedMPH,WindSpeedGustMPH,Humidity,HourlyPrecipIn,Conditions,Clouds,dailyrainin,SoftwareType,DateUTC
2013-07-05 00:00:00,61.3,57.4,25.31,SE,139,6.7,6.7,87,0.00,,---,0.00,VWS V14.01,2013-07-05 06:00:00,
2013-07-05 00:01:00,61.7,57.5,25.31,East,96,5.4,6.7,86,0.00,,---,0.00,VWS V14.01,2013-07-05 06:01:00,
2013-07-05 00:04:00,61.9,56.7,25.28,SSE,168,5.4,6.3,83,0.00,,---,0.00,VWS V14.01,2013-07-05 06:04:00,
2013-07-05 00:05:00,62.1,56.5,25.28,SSE,163,5.4,5.4,82,0.00,,---,0.00,VWS V14.01,2013-07-05 06:05:00,
2013-07-05 00:06:00,62.1,56.2,25.28,SSE,163,5.4,5.4,81,0.00,,---,0.00,VWS V14.01,2013-07-05 06:06:00,
2013-07-05 00:09:00,62.2,56.3,25.28,SE,140,3.6,5.4,81,0.00,,---,0.00,VWS V14.01,2013-07-05 06:09:00,
2013-07-05 00:11:00,62.2,56.0,25.28,SE,144,2.7,4.0,80,0.00,,---,0.00,VWS V14.01,2013-07-05 06:11:00,
2013-07-05 00:12:00,62.2,55.7,25.28,SSE,148,3.6,6.3,79,0.00,,---,0.00,VWS V14.01,2013-07-05 06:12:00,
2013-07-05 00:15:00,62.2,55.7,25.28,SE,136,3.6,3.6,79,0.00,,---,0.00,VWS V14.01,2013-07-05 06:15:00,
2013-07-05 00:17:00,62.4,56.2,25.28,ESE,122,3.1,4.0,80,0.00,,---,0.00,VWS V14.01,2013-07-05 06:17:00,
2013-07-05 00:19:00,62.4,56.2,25.28,ESE,103,4.9,4.9,80,0.00,,---,0.00,VWS V14.01,2013-07-05 06:19:00,
2013-07-05 00:22:00,62.4,55.5,25.28,SE,124,5.8,5.8,78,0.00,,---,0.00,VWS V14.01,2013-07-05 06:22:00,
2013-07-05 00:23:00,62.4,55.5,25.28,East,100,3.6,5.8,78,0.00,,---,0.00,VWS V14.01,2013-07-05 06:23:00,
2013-07-05 00:26:00,62.4,55.1,25.28,ESE,117,3.1,3.1,77,0.00,,---,0.00,VWS V14.01,2013-07-05 06:26:00,
2013-07-05 00:28:00,62.4,55.1,25.28,SE,135,0.0,3.1,77,0.00,,---,0.00,VWS V14.01,2013-07-05 06:28:00,
2013-07-05 00:29:00,62.4,55.1,25.28,ESE,106,2.2,2.2,77,0.00,,---,0.00,VWS V14.01,2013-07-05 06:29:00,
2013-07-05 00:31:00,62.2,54.6,25.28,SSW,199,3.6,3.6,76,0.00,,---,0.00,VWS V14.01,2013-07-05 06:31:00,
2013-07-05 00:33:00,62.2,54.2,25.28,SSW,199,3.6,3.6,75,0.00,,---,0.00,VWS V14.01,2013-07-05 06:33:00,
2013-07-05 00:36:00,62.2,53.9,25.28,North,357,3.1,3.6,74,0.00,,---,0.00,VWS V14.01,2013-07-05 06:36:00,
2013-07-05 00:37:00,62.2,53.9,25.28,SSE,149,3.6,3.6,74,0.00,,---,0.00,VWS V14.01,2013-07-05 06:37:00,
2013-07-05 00:40:00,62.2,52.7,25.28,East,93,4.0,4.0,71,0.00,,---,0.00,VWS V14.01,2013-07-05 06:40:00,
2013-07-05 00:41:00,62.4,52.5,25.28,East,93,4.0,4.0,70,0.00,,---,0.00,VWS V14.01,2013-07-05 06:41:00,
2013-07-05 00:44:00,62.6,52.3,25.28,SE,143,3.6,3.6,69,0.00,,---,0.00,VWS V14.01,2013-07-05 06:44:00,
2013-07-05 00:46:00,63.1,52.4,25.28,SE,143,3.6,3.6,68,0.00,,---,0.00,VWS V14.01,2013-07-05 06:46:00,
2013-07-05 00:47:00,63.1,52.4,25.28,SE,142,3.6,3.6,68,0.00,,---,0.00,VWS V14.01,2013-07-05 06:47:00,
2013-07-05 00:48:00,63.1,52.4,25.28,SE,142,3.6,3.6,68,0.00,,---,0.00,VWS V14.01,2013-07-05 06:48:00,
2013-07-05 00:51:00,63.1,52.0,25.28,SE,125,2.7,3.6,67,0.00,,---,0.00,VWS V14.01,2013-07-05 06:51:00,
2013-07-05 00:53:00,63.5,52.4,25.28,East,96,7.6,7.6,67,0.00,,---,0.00,VWS V14.01,2013-07-05 06:53:00,
2013-07-05 00:55:00,63.7,52.1,25.28,SE,125,4.0,4.0,66,0.00,,---,0.00,VWS V14.01,2013-07-05 06:55:00,
2013-07-05 00:57:00,63.7,52.1,25.28,East,101,4.9,4.9,66,0.00,,---,0.00,VWS V14.01,2013-07-05 06:57:00,
2013-07-05 00:58:00,63.7,52.1,25.28,East,101,4.9,4.9,66,0.00,,---,0.00,VWS V14.01,2013-07-05 06:58:00,
2013-07-05 01:01:00,63.5,52.0,25.28,SSE,168,2.7,3.1,66,0.00,,---,0.00,VWS V14.01,2013-07-05 07:01:00,
2013-07-05 01:03:00,63.5,51.1,25.28,ESE,113,5.4,5.4,64,0.00,,---,0.00,VWS V14.01,2013-07-05 07:03:00,
2013-07-05 01:04:00,63.7,50.4,25.28,SSE,148,4.5,5.4,62,0.00,,---,0.00,VWS V14.01,2013-07-05 07:04:00,
2013-07-05 01:06:00,64.0,51.2,25.28,SSE,151,4.0,4.5,63,0.00,,---,0.00,VWS V14.01,2013-07-05 07:06:00,
2013-07-05 01:07:00,64.2,50.5,25.28,SSE,151,4.0,4.0,61,0.00,,---,0.00,VWS V14.01,2013-07-05 07:07:00,
2013-07-05 01:09:00,64.4,50.7,25.28,ESE,103,5.8,5.8,61,0.00,,---,0.00,VWS V14.01,2013-07-05 07:09:00,
2013-07-05 01:13:00,64.4,51.5,25.28,ESE,104,3.1,3.6,63,0.00,,---,0.00,VWS V14.01,2013-07-05 07:13:00,
2013-07-05 01:14:00,64.4,51.5,25.28,SE,132,3.6,3.6,63,0.00,,---,0.00,VWS V14.01,2013-07-05 07:14:00,
2013-07-05 01:15:00,64.4,51.5,25.28,East,97,4.0,4.0,63,0.00,,---,0.00,VWS V14.01,2013-07-05 07:15:00,
2013-07-05 01:16:00,64.2,51.8,25.28,East,97,4.0,4.0,64,0.00,,---,0.00,VWS V14.01,2013-07-05 07:16:00,
2013-07-05 01:18:00,64.2,52.2,25.28,East,97,4.0,4.0,65,0.00,,---,0.00,VWS V14.01,2013-07-05 07:18:00,
2013-07-05 01:20:00,64.2,52.6,25.28,East,98,4.0,4.0,66,0.00,,---,0.00,VWS V14.01,2013-07-05 07:20:00,
2013-07-05 01:22:00,64.0,52.9,25.28,East,98,4.0,4.0,67,0.00,,---,0.00,VWS V14.01,2013-07-05 07:22:00,
2013-07-05 01:23:00,63.9,52.3,25.28,East,98,4.0,4.0,66,0.00,,---,0.00,VWS V14.01,2013-07-05 07:23:00,
2013-07-05 01:26:00,63.9,53.5,25.28,East,82,6.3,6.3,69,0.00,,---,0.00,VWS V14.01,2013-07-05 07:26:00,
2013-07-05 01:27:00,63.9,53.5,25.28,East,91,6.3,6.3,69,0.00,,---,0.00,VWS V14.01,2013-07-05 07:27:00,
2013-07-05 01:28:00,63.7,53.7,25.28,East,91,6.3,6.3,70,0.00,,---,0.00,VWS V14.01,2013-07-05 07:28:00,
2013-07-05 01:29:00,63.7,53.7,25.28,East,91,6.3,6.3,70,0.00,,---,0.00,VWS V14.01,2013-07-05 07:29:00,
2013-07-05 01:32:00,63.5,53.9,25.28,East,90,4.9,6.3,71,0.00,,---,0.00,VWS V14.01,2013-07-05 07:32:00,
2013-07-05 01:34:00,63.3,54.2,25.25,SE,141,0.0,4.9,72,0.00,,---,0.00,VWS V14.01,2013-07-05 07:34:00,
2013-07-05 01:35:00,63.3,54.2,25.25,SE,141,0.0,0.0,72,0.00,,---,0.00,VWS V14.01,2013-07-05 07:35:00,
2013-07-05 01:40:00,63.0,53.4,25.25,East,90,3.6,3.6,71,0.00,,---,0.00,VWS V14.01,2013-07-05 07:40:00,
2013-07-05 01:42:00,63.0,53.4,25.25,ESE,103,2.7,4.0,71,0.00,,---,0.00,VWS V14.01,2013-07-05 07:42:00,
2013-07-05 01:44:00,62.8,53.2,25.25,ESE,103,2.7,2.7,71,0.00,,---,0.00,VWS V14.01,2013-07-05 07:44:00,
2013-07-05 01:45:00,62.8,53.2,25.25,ESE,103,2.7,2.7,71,0.00,,---,0.00,VWS V14.01,2013-07-05 07:45:00,
2013-07-05 01:46:00,62.8,52.9,25.25,South,182,3.6,3.6,70,0.00,,---,0.00,VWS V14.01,2013-07-05 07:46:00,
2013-07-05 01:48:00,63.0,51.8,25.25,South,182,3.6,3.6,67,0.00,,---,0.00,VWS V14.01,2013-07-05 07:48:00,
2013-07-05 01:50:00,63.0,51.8,25.25,South,182,3.6,3.6,67,0.00,,---,0.00,VWS V14.01,2013-07-05 07:50:00,
2013-07-05 01:51:00,63.0,51.0,25.25,ESE,102,3.6,3.6,65,0.00,,---,0.00,VWS V14.01,2013-07-05 07:51:00,
2013-07-05 01:54:00,63.5,50.7,25.25,ESE,117,4.0,4.0,63,0.00,,---,0.00,VWS V14.01,2013-07-05 07:54:00,
2013-07-05 01:57:00,64.0,49.4,25.25,East,84,7.2,7.2,59,0.00,,---,0.00,VWS V14.01,2013-07-05 07:57:00,
2013-07-05 01:59:00,64.6,49.5,25.25,East,84,7.2,7.2,58,0.00,,---,0.00,VWS V14.01,2013-07-05 07:59:00,
2013-07-05 02:00:00,64.6,49.5,25.25,East,84,7.2,7.2,58,0.00,,---,0.00,VWS V14.01,2013-07-05 08:00:00,
2013-07-05 02:01:00,64.6,49.5,25.25,East,90,4.0,7.2,58,0.00,,---,0.00,VWS V14.01,2013-07-05 08:01:00,
2013-07-05 02:02:00,65.1,49.0,25.25,East,90,4.0,4.0,56,0.00,,---,0.00,VWS V14.01,2013-07-05 08:02:00,
2013-07-05 02:05:00,65.5,49.9,25.25,East,91,2.7,3.1,57,0.00,,---,0.00,VWS V14.01,2013-07-05 08:05:00,
2013-07-05 02:06:00,65.7,51.9,25.25,NE,54,3.6,3.6,61,0.00,,---,0.00,VWS V14.01,2013-07-05 08:06:00,
2013-07-05 02:09:00,65.1,50.9,25.25,NE,54,3.6,3.6,60,0.00,,---,0.00,VWS V14.01,2013-07-05 08:09:00,
2013-07-05 02:10:00,65.1,50.9,25.25,East,89,3.6,3.6,60,0.00,,---,0.00,VWS V14.01,2013-07-05 08:10:00,
2013-07-05 02:14:00,64.2,52.6,25.25,East,83,8.3,8.3,66,0.00,,---,0.00,VWS V14.01,2013-07-05 08:14:00,
2013-07-05 02:15:00,64.2,52.6,25.25,East,83,8.3,8.3,66,0.00,,---,0.00,VWS V14.01,2013-07-05 08:15:00,
2013-07-05 02:17:00,63.7,53.7,25.25,East,84,5.4,8.3,70,0.00,,---,0.00,VWS V14.01,2013-07-05 08:17:00,
2013-07-05 02:20:00,63.1,54.3,25.25,ENE,58,4.5,8.1,73,0.00,,---,0.00,VWS V14.01,2013-07-05 08:20:00,
2013-07-05 02:22:00,62.8,55.1,25.25,ENE,58,5.8,5.8,76,0.00,,---,0.00,VWS V14.01,2013-07-05 08:22:00,
2013-07-05 02:23:00,62.6,55.3,25.25,ENE,58,5.8,5.8,77,0.00,,---,0.00,VWS V14.01,2013-07-05 08:23:00,
2013-07-05 02:24:00,62.6,55.3,25.25,ESE,111,4.0,5.8,77,0.00,,---,0.00,VWS V14.01,2013-07-05 08:24:00,
2013-07-05 02:25:00,62.2,55.7,25.25,ESE,111,4.0,4.0,79,0.00,,---,0.00,VWS V14.01,2013-07-05 08:25:00,
2013-07-05 02:28:00,62.1,55.8,25.25,ENE,75,8.1,8.1,80,0.00,,---,0.00,VWS V14.01,2013-07-05 08:28:00,
2013-07-05 02:29:00,61.9,56.3,25.25,ENE,75,8.1,8.1,82,0.00,,---,0.00,VWS V14.01,2013-07-05 08:29:00,
2013-07-05 02:31:00,61.7,56.5,25.25,ESE,102,5.8,5.8,83,0.00,,---,0.00,VWS V14.01,2013-07-05 08:31:00,
2013-07-05 02:33:00,61.5,56.7,25.25,ESE,110,4.0,4.0,84,0.00,,---,0.00,VWS V14.01,2013-07-05 08:33:00,
2013-07-05 02:34:00,61.3,57.1,25.25,SE,131,5.4,5.4,86,0.00,,---,0.00,VWS V14.01,2013-07-05 08:34:00,
2013-07-05 02:35:00,61.3,57.1,25.25,SE,131,5.4,5.4,86,0.00,,---,0.00,VWS V14.01,2013-07-05 08:35:00,
2013-07-05 02:37:00,61.2,57.6,25.25,East,92,5.4,5.4,88,0.00,,---,0.00,VWS V14.01,2013-07-05 08:37:00,
2013-07-05 02:39:00,61.2,57.6,25.25,ESE,104,2.7,2.7,88,0.00,,---,0.00,VWS V14.01,2013-07-05 08:39:00,
2013-07-05 02:40:00,61.0,57.7,25.25,ESE,104,2.7,2.7,89,0.00,,---,0.00,VWS V14.01,2013-07-05 08:40:00,
2013-07-05 02:41:00,61.0,57.7,25.25,SSE,168,2.2,2.7,89,0.00,,---,0.00,VWS V14.01,2013-07-05 08:41:00,
2013-07-05 02:43:00,61.0,57.7,25.25,East,99,3.1,3.1,89,0.00,,---,0.00,VWS V14.01,2013-07-05 08:43:00,
2013-07-05 02:46:00,60.8,57.8,25.25,SE,126,5.8,5.8,90,0.00,,---,0.00,VWS V14.01,2013-07-05 08:46:00,
2013-07-05 02:47:00,60.8,57.8,25.25,East,90,6.3,6.3,90,0.00,,---,0.00,VWS V14.01,2013-07-05 08:47:00,
2013-07-05 02:48:00,60.8,58.2,25.25,ESE,103,5.8,6.3,91,0.00,,---,0.00,VWS V14.01,2013-07-05 08:48:00,
2013-07-05 02:50:00,60.8,58.5,25.25,East,93,5.8,5.8,92,0.00,,---,0.00,VWS V14.01,2013-07-05 08:50:00,
2013-07-05 02:53:00,60.8,58.8,25.25,ENE,57,4.5,4.5,93,0.00,,---,0.00,VWS V14.01,2013-07-05 08:53:00,
2013-07-05 02:55:00,60.8,58.8,25.25,ESE,106,8.1,8.1,93,0.00,,---,0.00,VWS V14.01,2013-07-05 08:55:00,
2013-07-05 02:57:00,60.8,59.1,25.25,East,97,10.1,10.1,94,0.00,,---,0.00,VWS V14.01,2013-07-05 08:57:00,
2013-07-05 03:03:00,60.8,58.8,25.25,East,90,3.1,3.1,93,0.00,,---,0.00,VWS V14.01,2013-07-05 09:03:00,
2013-07-05 03:04:00,60.8,58.8,25.25,East,90,3.1,3.1,93,0.00,,---,0.00,VWS V14.01,2013-07-05 09:04:00,
2013-07-05 03:07:00,61.0,58.6,25.25,East,81,5.4,5.4,92,0.00,,---,0.00,VWS V14.01,2013-07-05 09:07:00,
2013-07-05 03:08:00,61.0,58.6,25.25,East,81,5.4,5.4,92,0.00,,---,0.00,VWS V14.01,2013-07-05 09:08:00,
2013-07-05 03:10:00,61.0,58.0,25.25,ENE,74,5.4,5.4,90,0.00,,---,0.00,VWS V14.01,2013-07-05 09:10:00,
2013-07-05 03:15:00,61.5,57.6,25.25,ENE,63,5.4,5.4,87,0.00,,---,0.00,VWS V14.01,2013-07-05 09:15:00,
2013-07-05 03:20:00,61.7,56.2,25.25,East,86,2.7,2.7,82,0.00,,---,0.00,VWS V14.01,2013-07-05 09:20:00,
2013-07-05 03:21:00,61.9,56.3,25.25,ENE,78,5.8,5.8,82,0.00,,---,0.00,VWS V14.01,2013-07-05 09:21:00,
2013-07-05 03:23:00,62.1,55.8,25.25,ENE,78,5.8,5.8,80,0.00,,---,0.00,VWS V14.01,2013-07-05 09:23:00,
2013-07-05 03:26:00,62.2,55.3,25.25,South,179,3.1,3.1,78,0.00,,---,0.00,VWS V14.01,2013-07-05 09:26:00,
2013-07-05 03:30:00,62.6,54.9,25.25,SE,132,0.0,0.0,76,0.00,,---,0.00,VWS V14.01,2013-07-05 09:30:00,
2013-07-05 03:31:00,62.6,54.9,25.25,SE,130,5.4,5.4,76,0.00,,---,0.00,VWS V14.01,2013-07-05 09:31:00,
2013-07-05 03:33:00,62.6,54.2,25.25,SE,131,5.4,5.4,74,0.00,,---,0.00,VWS V14.01,2013-07-05 09:33:00,
2013-07-05 03:34:00,62.6,54.2,25.25,SE,131,5.4,5.4,74,0.00,,---,0.00,VWS V14.01,2013-07-05 09:34:00,
2013-07-05 03:39:00,62.6,54.2,25.25,ESE,119,3.6,3.6,74,0.00,,---,0.00,VWS V14.01,2013-07-05 09:39:00,
2013-07-05 03:40:00,62.6,54.2,25.25,SSE,163,3.1,3.6,74,0.00,,---,0.00,VWS V14.01,2013-07-05 09:40:00,
2013-07-05 03:42:00,62.6,54.2,25.25,SSE,163,3.1,3.1,74,0.00,,---,0.00,VWS V14.01,2013-07-05 09:42:00,
2013-07-05 03:45:00,62.8,54.0,25.25,SSE,156,4.9,4.9,73,0.00,,---,0.00,VWS V14.01,2013-07-05 09:45:00,
2013-07-05 03:47:00,62.8,54.0,25.25,NE,51,4.9,5.8,73,0.00,,---,0.00,VWS V14.01,2013-07-05 09:47:00,
2013-07-05 03:50:00,62.8,54.0,25.25,NE,51,4.9,4.9,73,0.00,,---,0.00,VWS V14.01,2013-07-05 09:50:00,
2013-07-05 03:52:00,62.8,54.0,25.25,NE,51,4.9,4.9,73,0.00,,---,0.00,VWS V14.01,2013-07-05 09:52:00,
2013-07-05 03:55:00,62.8,54.8,25.25,ENE,74,3.1,4.0,75,0.00,,---,0.00,VWS V14.01,2013-07-05 09:55:00,
2013-07-05 03:57:00,62.8,55.1,25.25,ESE,113,7.6,7.6,76,0.00,,---,0.00,VWS V14.01,2013-07-05 09:57:00,
2013-07-05 03:58:00,62.6,54.9,25.25,SE,137,3.6,7.6,76,0.00,,---,0.00,VWS V14.01,2013-07-05 09:58:00,
2013-07-05 04:01:00,62.6,54.9,25.25,SE,137,3.6,3.6,76,0.00,,---,0.00,VWS V14.01,2013-07-05 10:01:00,
2013-07-05 04:06:00,62.2,56.0,25.25,NE,55,5.8,5.8,80,0.00,,---,0.00,VWS V14.01,2013-07-05 10:06:00,
2013-07-05 04:07:00,62.2,56.3,25.25,ESE,110,3.6,5.8,81,0.00,,---,0.00,VWS V14.01,2013-07-05 10:07:00,
2013-07-05 04:09:00,62.2,56.3,25.25,ESE,111,2.7,3.6,81,0.00,,---,0.00,VWS V14.01,2013-07-05 10:09:00,
2013-07-05 04:12:00,62.1,56.8,25.25,East,87,5.4,5.4,83,0.00,,---,0.00,VWS V14.01,2013-07-05 10:12:00,
2013-07-05 04:15:00,61.9,56.7,25.25,East,87,5.4,5.4,83,0.00,,---,0.00,VWS V14.01,2013-07-05 10:15:00,
2013-07-05 04:17:00,61.9,57.0,25.25,East,98,4.0,4.0,84,0.00,,---,0.00,VWS V14.01,2013-07-05 10:17:00,
2013-07-05 04:19:00,61.9,57.0,25.25,ESE,111,4.0,4.0,84,0.00,,---,0.00,VWS V14.01,2013-07-05 10:19:00,
2013-07-05 04:21:00,61.9,57.0,25.25,East,91,6.3,6.3,84,0.00,,---,0.00,VWS V14.01,2013-07-05 10:21:00,
2013-07-05 04:24:00,61.9,57.3,25.25,East,87,4.0,4.0,85,0.00,,---,0.00,VWS V14.01,2013-07-05 10:24:00,
2013-07-05 04:30:00,61.9,56.7,25.25,East,86,5.4,5.8,83,0.00,,---,0.00,VWS V14.01,2013-07-05 10:30:00,
2013-07-05 04:31:00,61.9,56.7,25.25,SE,146,4.0,5.4,83,0.00,,---,0.00,VWS V14.01,2013-07-05 10:31:00,
2013-07-05 04:32:00,61.9,56.7,25.25,SE,146,4.0,4.0,83,0.00,,---,0.00,VWS V14.01,2013-07-05 10:32:00,
2013-07-05 04:37:00,62.1,57.2,25.25,ESE,106,4.0,4.0,84,0.00,,---,0.00,VWS V14.01,2013-07-05 10:37:00,
2013-07-05 04:38:00,62.1,57.5,25.25,ESE,106,4.0,4.0,85,0.00,,---,0.00,VWS V14.01,2013-07-05 10:38:00,
2013-07-05 04:40:00,62.1,57.5,25.25,ESE,116,4.0,4.0,85,0.00,,---,0.00,VWS V14.01,2013-07-05 10:40:00,
2013-07-05 04:42:00,61.9,57.7,25.25,ESE,112,7.6,7.6,86,0.00,,---,0.00,VWS V14.01,2013-07-05 10:42:00,
2013-07-05 04:47:00,61.9,57.3,25.25,SE,135,6.3,9.6,85,0.00,,---,0.00,VWS V14.01,2013-07-05 10:47:00,
2013-07-05 04:48:00,61.9,57.3,25.25,ENE,67,8.1,8.1,85,0.00,,---,0.00,VWS V14.01,2013-07-05 10:48:00,
2013-07-05 04:49:00,61.9,56.7,25.25,East,92,4.0,8.1,83,0.00,,---,0.00,VWS V14.01,2013-07-05 10:49:00,
2013-07-05 04:54:00,61.9,56.7,25.25,SSE,153,4.9,4.9,83,0.00,,---,0.00,VWS V14.01,2013-07-05 10:54:00,
2013-07-05 04:55:00,61.9,56.7,25.25,East,82,4.0,4.9,83,0.00,,---,0.00,VWS V14.01,2013-07-05 10:55:00,
2013-07-05 04:56:00,61.9,56.3,25.25,SE,141,3.1,4.0,82,0.00,,---,0.00,VWS V14.01,2013-07-05 10:56:00,
2013-07-05 04:57:00,61.9,56.3,25.25,SE,133,4.0,4.0,82,0.00,,---,0.00,VWS V14.01,2013-07-05 10:57:00,
2013-07-05 05:01:00,61.9,56.3,25.25,ESE,103,8.1,8.1,82,0.00,,---,0.00,VWS V14.01,2013-07-05 11:01:00,
2013-07-05 05:02:00,61.7,55.8,25.25,SSW,192,4.9,8.1,81,0.00,,---,0.00,VWS V14.01,2013-07-05 11:02:00,
2013-07-05 05:03:00,61.7,55.8,25.25,East,96,8.1,8.1,81,0.00,,---,0.00,VWS V14.01,2013-07-05 11:03:00,
2013-07-05 05:08:00,61.9,55.7,25.28,ENE,72,8.1,8.7,80,0.00,,---,0.00,VWS V14.01,2013-07-05 11:08:00,
2013-07-05 05:10:00,61.9,55.7,25.28,ESE,112,2.7,4.0,80,0.00,,---,0.00,VWS V14.01,2013-07-05 11:10:00,
2013-07-05 05:12:00,61.9,55.7,25.28,ESE,116,6.7,6.7,80,0.00,,---,0.00,VWS V14.01,2013-07-05 11:12:00,
2013-07-05 05:13:00,61.9,55.0,25.28,ESE,121,7.6,7.6,78,0.00,,---,0.00,VWS V14.01,2013-07-05 11:13:00,
2013-07-05 05:18:00,62.2,54.2,25.28,SE,138,5.4,5.4,75,0.00,,---,0.00,VWS V14.01,2013-07-05 11:18:00,
2013-07-05 05:20:00,62.2,54.6,25.28,SE,124,10.1,10.1,76,0.00,,---,0.00,VWS V14.01,2013-07-05 11:20:00,
2013-07-05 05:23:00,62.4,54.8,25.28,SE,141,7.6,7.6,76,0.00,,---,0.00,VWS V14.01,2013-07-05 11:23:00,
2013-07-05 05:24:00,62.4,54.8,25.28,SE,145,3.6,7.6,76,0.00,,---,0.00,VWS V14.01,2013-07-05 11:24:00,
2013-07-05 05:25:00,62.4,54.8,25.28,ENE,75,5.4,5.4,76,0.00,,---,0.00,VWS V14.01,2013-07-05 11:25:00,
2013-07-05 05:28:00,62.2,56.0,25.28,NE,55,5.8,5.8,80,0.00,,---,0.00,VWS V14.01,2013-07-05 11:28:00,
2013-07-05 05:30:00,62.1,55.8,25.28,ENE,77,3.6,5.4,80,0.00,,---,0.00,VWS V14.01,2013-07-05 11:30:00,
2013-07-05 05:34:00,61.9,56.7,25.28,ESE,111,5.4,5.4,83,0.00,,---,0.00,VWS V14.01,2013-07-05 11:34:00,
2013-07-05 05:38:00,61.7,56.8,25.28,NE,34,3.6,5.4,84,0.00,,---,0.00,VWS V14.01,2013-07-05 11:38:00,
2013-07-05 05:39:00,61.7,56.8,25.28,NE,45,5.8,5.8,84,0.00,,---,0.00,VWS V14.01,2013-07-05 11:39:00,
2013-07-05 05:40:00,61.7,57.5,25.28,ESE,116,4.0,5.8,86,0.00,,---,0.00,VWS V14.01,2013-07-05 11:40:00,
2013-07-05 05:41:00,61.7,57.5,25.28,ENE,63,8.3,8.3,86,0.00,,---,0.00,VWS V14.01,2013-07-05 11:41:00,
2013-07-05 05:44:00,61.7,57.5,25.28,ESE,105,6.3,6.3,86,0.00,,---,0.00,VWS V14.01,2013-07-05 11:44:00,
2013-07-05 05:47:00,61.7,58.1,25.28,ENE,64,4.0,4.0,88,0.00,,---,0.00,VWS V14.01,2013-07-05 11:47:00,
2013-07-05 05:49:00,61.7,58.1,25.28,East,82,5.8,5.8,88,0.00,,---,0.00,VWS V14.01,2013-07-05 11:49:00,
2013-07-05 05:51:00,61.7,58.1,25.28,East,88,0.0,5.4,88,0.00,,---,0.00,VWS V14.01,2013-07-05 11:51:00,
2013-07-05 05:54:00,61.7,58.1,25.28,East,95,6.7,6.7,88,0.00,,---,0.00,VWS V14.01,2013-07-05 11:54:00,
2013-07-05 05:55:00,61.7,58.1,25.28,East,92,4.0,6.7,88,0.00,,---,0.00,VWS V14.01,2013-07-05 11:55:00,
2013-07-05 05:56:00,61.7,58.1,25.28,East,101,2.7,4.0,88,0.00,,---,0.00,VWS V14.01,2013-07-05 11:56:00,
2013-07-05 06:00:00,62.1,56.8,25.28,SE,128,4.0,4.0,83,0.00,,---,0.00,VWS V14.01,2013-07-05 12:00:00,
2013-07-05 06:04:00,62.2,56.3,25.28,ESE,120,8.7,11.0,81,0.00,,---,0.00,VWS V14.01,2013-07-05 12:04:00,
2013-07-05 06:08:00,62.4,56.2,25.28,East,94,5.4,5.8,80,0.00,,---,0.00,VWS V14.01,2013-07-05 12:08:00,
2013-07-05 06:09:00,62.4,56.2,25.28,East,90,4.9,5.4,80,0.00,,---,0.00,VWS V14.01,2013-07-05 12:09:00,
2013-07-05 06:11:00,62.4,56.2,25.28,East,100,5.4,6.3,80,0.00,,---,0.00,VWS V14.01,2013-07-05 12:11:00,
2013-07-05 06:12:00,62.4,56.2,25.28,SE,133,5.4,6.3,80,0.00,,---,0.00,VWS V14.01,2013-07-05 12:12:00,
2013-07-05 06:17:00,62.4,56.2,25.28,SE,126,6.3,6.3,80,0.00,,---,0.00,VWS V14.01,2013-07-05 12:17:00,
2013-07-05 06:19:00,62.4,56.2,25.28,North,2,4.0,5.4,80,0.00,,---,0.00,VWS V14.01,2013-07-05 12:19:00,
2013-07-05 06:24:00,62.2,57.0,25.28,ESE,123,4.9,5.4,83,0.00,,---,0.00,VWS V14.01,2013-07-05 12:24:00,
2013-07-05 06:26:00,62.2,57.0,25.28,ENE,60,4.0,4.0,83,0.00,,---,0.00,VWS V14.01,2013-07-05 12:26:00,
2013-07-05 06:28:00,62.2,57.0,25.28,ENE,66,4.0,5.8,83,0.00,,---,0.00,VWS V14.01,2013-07-05 12:28:00,
2013-07-05 06:31:00,62.6,56.7,25.28,SSE,148,5.8,5.8,81,0.00,,---,0.00,VWS V14.01,2013-07-05 12:31:00,
2013-07-05 06:35:00,63.5,56.5,25.28,ENE,70,8.3,8.3,78,0.00,,---,0.00,VWS V14.01,2013-07-05 12:35:00,
2013-07-05 06:37:00,63.5,56.5,25.28,SSE,168,8.1,8.1,78,0.00,,---,0.00,VWS V14.01,2013-07-05 12:37:00,
2013-07-05 06:43:00,65.3,55.3,25.28,SW,233,3.1,5.4,70,0.00,,---,0.00,VWS V14.01,2013-07-05 12:43:00,
2013-07-05 06:44:00,65.5,55.0,25.28,SE,124,5.8,5.8,69,0.00,,---,0.00,VWS V14.01,2013-07-05 12:44:00,
2013-07-05 06:45:00,65.7,54.4,25.28,SE,145,6.3,6.3,67,0.00,,---,0.00,VWS V14.01,2013-07-05 12:45:00,
2013-07-05 06:50:00,66.2,54.9,25.28,ESE,105,3.6,5.4,67,0.00,,---,0.00,VWS V14.01,2013-07-05 12:50:00,
2013-07-05 06:52:00,66.6,54.9,25.28,ESE,122,4.0,4.0,66,0.00,,---,0.00,VWS V14.01,2013-07-05 12:52:00,
2013-07-05 06:53:00,66.6,54.9,25.28,SE,126,8.7,8.7,66,0.00,,---,0.00,VWS V14.01,2013-07-05 12:53:00,
2013-07-05 06:56:00,66.9,54.8,25.28,SSE,157,4.0,4.0,65,0.00,,---,0.00,VWS V14.01,2013-07-05 12:56:00,
2013-07-05 06:58:00,66.9,54.8,25.28,ESE,120,4.0,4.0,65,0.00,,---,0.00,VWS V14.01,2013-07-05 12:58:00,
2013-07-05 07:02:00,67.5,54.9,25.28,SE,140,7.6,7.6,64,0.00,,---,0.00,VWS V14.01,2013-07-05 13:02:00,
2013-07-05 07:03:00,67.5,54.9,25.28,SE,135,8.1,8.1,64,0.00,,---,0.00,VWS V14.01,2013-07-05 13:03:00,
2013-07-05 07:04:00,67.5,54.9,25.28,ENE,57,6.3,10.5,64,0.00,,---,0.00,VWS V14.01,2013-07-05 13:04:00,
2013-07-05 07:05:00,67.5,54.0,25.28,East,85,5.8,6.3,62,0.00,,---,0.00,VWS V14.01,2013-07-05 13:05:00,
2013-07-05 07:09:00,66.9,53.9,25.28,ESE,112,9.6,9.6,63,0.00,,---,0.00,VWS V14.01,2013-07-05 13:09:00,
2013-07-05 07:12:00,66.6,54.4,25.28,ENE,77,6.3,6.3,65,0.00,,---,0.00,VWS V14.01,2013-07-05 13:12:00,
2013-07-05 07:13:00,66.4,55.1,25.28,ESE,110,3.6,8.3,67,0.00,,---,0.00,VWS V14.01,2013-07-05 13:13:00,
2013-07-05 07:14:00,66.2,54.9,25.28,East,95,6.3,6.3,67,0.00,,---,0.00,VWS V14.01,2013-07-05 13:14:00,
2013-07-05 07:15:00,66.2,54.9,25.28,NNE,31,5.4,6.3,67,0.00,,---,0.00,VWS V14.01,2013-07-05 13:15:00,
2013-07-05 07:19:00,65.7,55.6,25.28,SE,126,5.8,5.8,70,0.00,,---,0.00,VWS V14.01,2013-07-05 13:19:00,
2013-07-05 07:23:00,65.3,56.4,25.28,NE,46,6.3,6.3,73,0.00,,---,0.00,VWS V14.01,2013-07-05 13:23:00,
2013-07-05 07:25:00,65.3,56.4,25.28,NE,50,3.6,3.6,73,0.00,,---,0.00,VWS V14.01,2013-07-05 13:25:00,
2013-07-05 07:27:00,65.1,57.4,25.28,ESE,102,5.4,5.4,76,0.00,,---,0.00,VWS V14.01,2013-07-05 13:27:00,
2013-07-05 07:29:00,65.1,57.4,25.28,ENE,63,8.1,8.1,76,0.00,,---,0.00,VWS V14.01,2013-07-05 13:29:00,
2013-07-05 07:33:00,66.0,56.7,25.28,ESE,114,7.6,7.6,72,0.00,,---,0.00,VWS V14.01,2013-07-05 13:33:00,
2013-07-05 07:35:00,66.2,56.9,25.28,ESE,110,4.9,5.8,72,0.00,,---,0.00,VWS V14.01,2013-07-05 13:35:00,
2013-07-05 07:37:00,66.4,56.3,25.28,SSE,148,5.8,5.8,70,0.00,,---,0.00,VWS V14.01,2013-07-05 13:37:00,
2013-07-05 07:39:00,66.7,55.8,25.28,NE,46,5.4,10.1,68,0.00,,---,0.00,VWS V14.01,2013-07-05 13:39:00,
2013-07-05 07:40:00,66.7,56.3,25.28,North,357,5.8,10.5,69,0.00,,---,0.00,VWS V14.01,2013-07-05 13:40:00,
2013-07-05 07:44:00,66.7,56.3,25.28,East,99,5.8,8.7,69,0.00,,---,0.00,VWS V14.01,2013-07-05 13:44:00,
2013-07-05 07:48:00,67.3,55.5,25.28,NNE,16,7.6,11.0,66,0.00,,---,0.00,VWS V14.01,2013-07-05 13:48:00,
2013-07-05 07:49:00,67.3,55.5,25.31,ENE,65,10.5,10.5,66,0.00,,---,0.00,VWS V14.01,2013-07-05 13:49:00,
2013-07-05 07:50:00,67.3,55.5,25.31,East,100,6.3,10.5,66,0.00,,---,0.00,VWS V14.01,2013-07-05 13:50:00,
2013-07-05 07:55:00,67.1,55.0,25.31,ESE,109,4.0,4.9,65,0.00,,---,0.00,VWS V14.01,2013-07-05 13:55:00,
2013-07-05 07:57:00,67.1,55.0,25.31,East,79,3.6,5.4,65,0.00,,---,0.00,VWS V14.01,2013-07-05 13:57:00,
2013-07-05 07:58:00,67.1,55.4,25.31,ESE,102,3.6,3.6,66,0.00,,---,0.00,VWS V14.01,2013-07-05 13:58:00,
2013-07-05 07:59:00,67.1,55.0,25.31,SE,144,7.6,7.6,65,0.00,,---,0.00,VWS V14.01,2013-07-05 13:59:00,
2013-07-05 08:00:00,67.1,55.0,25.31,East,90,3.1,7.6,65,0.00,,---,0.00,VWS V14.01,2013-07-05 14:00:00,
2013-07-05 08:05:00,67.1,55.8,25.31,ESE,105,4.0,4.0,67,0.00,,---,0.00,VWS V14.01,2013-07-05 14:05:00,
2013-07-05 08:07:00,67.1,55.8,25.31,East,99,5.8,5.8,67,0.00,,---,0.00,VWS V14.01,2013-07-05 14:07:00,
2013-07-05 08:09:00,67.1,55.8,25.31,ESE,106,4.9,8.1,67,0.00,,---,0.00,VWS V14.01,2013-07-05 14:09:00,
2013-07-05 08:14:00,68.4,55.7,25.31,NE,38,4.9,4.9,64,0.00,,---,0.00,VWS V14.01,2013-07-05 14:14:00,
2013-07-05 08:16:00,68.4,55.7,25.31,East,95,2.7,2.7,64,0.00,,---,0.00,VWS V14.01,2013-07-05 14:16:00,
2013-07-05 08:17:00,69.1,55.5,25.31,ESE,105,5.8,7.6,62,0.00,,---,0.00,VWS V14.01,2013-07-05 14:17:00,
2013-07-05 08:18:00,69.3,54.8,25.31,ESE,105,5.8,5.8,60,0.00,,---,0.00,VWS V14.01,2013-07-05 14:18:00,
2013-07-05 08:22:00,69.1,54.2,25.31,East,85,6.7,6.7,59,0.00,,---,0.00,VWS V14.01,2013-07-05 14:22:00,
2013-07-05 08:23:00,69.1,54.2,25.31,East,97,5.4,6.7,59,0.00,,---,0.00,VWS V14.01,2013-07-05 14:23:00,
2013-07-05 08:24:00,69.1,54.2,25.31,East,89,4.0,6.3,59,0.00,,---,0.00,VWS V14.01,2013-07-05 14:24:00,
2013-07-05 08:29:00,69.3,54.8,25.28,East,101,6.3,6.3,60,0.00,,---,0.00,VWS V14.01,2013-07-05 14:29:00,
2013-07-05 08:30:00,69.3,54.8,25.28,East,88,5.8,6.3,60,0.00,,---,0.00,VWS V14.01,2013-07-05 14:30:00,
2013-07-05 08:31:00,69.4,55.0,25.28,ENE,69,6.3,6.3,60,0.00,,---,0.00,VWS V14.01,2013-07-05 14:31:00,
2013-07-05 08:36:00,69.4,55.0,25.28,ESE,116,6.3,6.3,60,0.00,,---,0.00,VWS V14.01,2013-07-05 14:36:00,
2013-07-05 08:37:00,69.4,55.0,25.28,ENE,58,3.6,6.3,60,0.00,,---,0.00,VWS V14.01,2013-07-05 14:37:00,
2013-07-05 08:38:00,69.4,55.0,25.28,East,93,5.8,5.8,60,0.00,,---,0.00,VWS V14.01,2013-07-05 14:38:00,
2013-07-05 08:39:00,70.2,54.2,25.28,ESE,120,4.0,6.3,57,0.00,,---,0.00,VWS V14.01,2013-07-05 14:39:00,
2013-07-05 08:45:00,70.5,55.0,25.28,SE,143,5.4,5.4,58,0.00,,---,0.00,VWS V14.01,2013-07-05 14:45:00,
2013-07-05 08:46:00,70.5,55.0,25.31,SE,143,5.4,5.4,58,0.00,,---,0.00,VWS V14.01,2013-07-05 14:46:00,
2013-07-05 08:50:00,70.5,55.0,25.31,NW,326,5.8,8.3,58,0.00,,---,0.00,VWS V14.01,2013-07-05 14:50:00,
2013-07-05 08:51:00,71.2,54.8,25.31,NW,326,5.8,5.8,56,0.00,,---,0.00,VWS V14.01,2013-07-05 14:51:00,
2013-07-05 08:52:00,71.2,54.8,25.31,ESE,116,4.9,5.8,56,0.00,,---,0.00,VWS V14.01,2013-07-05 14:52:00,
2013-07-05 08:54:00,71.2,54.8,25.28,ENE,59,4.0,4.9,56,0.00,,---,0.00,VWS V14.01,2013-07-05 14:54:00,
2013-07-05 08:56:00,71.2,54.8,25.28,ENE,77,5.4,5.4,56,0.00,,---,0.00,VWS V14.01,2013-07-05 14:56:00,
2013-07-05 08:57:00,70.5,54.6,25.28,ENE,77,5.4,5.4,57,0.00,,---,0.00,VWS V14.01,2013-07-05 14:57:00,
2013-07-05 09:00:00,70.5,54.6,25.28,ENE,70,4.5,11.0,57,0.00,,---,0.00,VWS V14.01,2013-07-05 15:00:00,
2013-07-05 09:03:00,70.5,54.6,25.28,NE,53,6.3,8.7,57,0.00,,---,0.00,VWS V14.01,2013-07-05 15:03:00,
2013-07-05 09:04:00,70.5,54.6,25.28,ENE,75,4.9,6.3,57,0.00,,---,0.00,VWS V14.01,2013-07-05 15:04:00,
2013-07-05 09:06:00,70.5,54.6,25.31,East,91,6.3,6.3,57,0.00,,---,0.00,VWS V14.01,2013-07-05 15:06:00,
2013-07-05 09:07:00,70.5,54.6,25.31,SE,129,5.8,6.3,57,0.00,,---,0.00,VWS V14.01,2013-07-05 15:07:00,
2013-07-05 09:11:00,70.7,55.2,25.31,ESE,111,4.0,4.0,58,0.00,,---,0.00,VWS V14.01,2013-07-05 15:11:00,
2013-07-05 09:16:00,71.8,53.2,25.31,East,89,4.0,8.3,52,0.00,,---,0.00,VWS V14.01,2013-07-05 15:16:00,
2013-07-05 09:17:00,72.0,52.9,25.31,East,89,4.0,4.0,51,0.00,,---,0.00,VWS V14.01,2013-07-05 15:17:00,
2013-07-05 09:18:00,72.0,52.9,25.31,SE,132,6.3,6.3,51,0.00,,---,0.00,VWS V14.01,2013-07-05 15:18:00,
2013-07-05 09:23:00,71.8,53.2,25.31,ESE,120,3.6,5.8,52,0.00,,---,0.00,VWS V14.01,2013-07-05 15:23:00,
2013-07-05 09:24:00,71.8,53.2,25.31,SE,130,4.0,4.0,52,0.00,,---,0.00,VWS V14.01,2013-07-05 15:24:00,
2013-07-05 09:26:00,71.8,53.2,25.31,ESE,116,8.7,8.7,52,0.00,,---,0.00,VWS V14.01,2013-07-05 15:26:00,
2013-07-05 09:28:00,71.8,53.2,25.31,NE,41,6.7,6.7,52,0.00,,---,0.00,VWS V14.01,2013-07-05 15:28:00,
2013-07-05 09:30:00,71.8,53.2,25.31,East,85,4.9,4.9,52,0.00,,---,0.00,VWS V14.01,2013-07-05 15:30:00,
2013-07-05 09:31:00,71.8,53.2,25.31,East,85,4.9,4.9,52,0.00,,---,0.00,VWS V14.01,2013-07-05 15:31:00,
2013-07-05 09:32:00,70.3,54.9,25.31,East,85,4.9,4.9,58,0.00,,---,0.00,VWS V14.01,2013-07-05 15:32:00,
2013-07-05 09:34:00,70.3,54.9,25.31,ENE,68,5.8,5.8,58,0.00,,---,0.00,VWS V14.01,2013-07-05 15:34:00,
2013-07-05 09:37:00,70.2,54.7,25.31,ENE,68,5.8,5.8,58,0.00,,---,0.00,VWS V14.01,2013-07-05 15:37:00,
2013-07-05 09:40:00,70.3,55.3,25.31,NNE,33,3.6,3.6,59,0.00,,---,0.00,VWS V14.01,2013-07-05 15:40:00,
2013-07-05 09:41:00,70.3,55.3,25.31,NE,56,3.1,3.6,59,0.00,,---,0.00,VWS V14.01,2013-07-05 15:41:00,
2013-07-05 09:42:00,70.3,55.3,25.31,NE,56,3.1,3.1,59,0.00,,---,0.00,VWS V14.01,2013-07-05 15:42:00,
2013-07-05 09:46:00,70.3,55.3,25.31,NE,48,4.0,4.0,59,0.00,,---,0.00,VWS V14.01,2013-07-05 15:46:00,
2013-07-05 09:48:00,70.3,55.3,25.31,East,89,5.8,8.3,59,0.00,,---,0.00,VWS V14.01,2013-07-05 15:48:00,
2013-07-05 09:49:00,70.3,55.3,25.31,East,89,5.8,5.8,59,0.00,,---,0.00,VWS V14.01,2013-07-05 15:49:00,
2013-07-05 09:50:00,70.3,55.3,25.31,ESE,121,5.4,6.3,59,0.00,,---,0.00,VWS V14.01,2013-07-05 15:50:00,
2013-07-05 09:51:00,70.3,55.3,25.31,ESE,112,3.1,5.4,59,0.00,,---,0.00,VWS V14.01,2013-07-05 15:51:00,
2013-07-05 09:52:00,70.3,55.3,25.31,ESE,109,4.9,4.9,59,0.00,,---,0.00,VWS V14.01,2013-07-05 15:52:00,
2013-07-05 09:56:00,72.3,52.1,25.31,ENE,77,5.4,5.4,49,0.00,,---,0.00,VWS V14.01,2013-07-05 15:56:00,
2013-07-05 09:58:00,73.0,53.9,25.31,ENE,77,5.4,5.4,51,0.00,,---,0.00,VWS V14.01,2013-07-05 15:58:00,
2013-07-05 10:00:00,73.4,54.2,25.31,NE,53,5.4,5.4,51,0.00,,---,0.00,VWS V14.01,2013-07-05 16:00:00,
2013-07-05 10:03:00,73.6,54.4,25.31,East,93,11.0,11.0,51,0.00,,---,0.00,VWS V14.01,2013-07-05 16:03:00,
2013-07-05 10:04:00,73.6,54.4,25.31,ESE,113,6.7,11.0,51,0.00,,---,0.00,VWS V14.01,2013-07-05 16:04:00,
2013-07-05 10:06:00,73.6,51.0,25.31,ESE,113,6.7,6.7,45,0.00,,---,0.00,VWS V14.01,2013-07-05 16:06:00,
2013-07-05 10:10:00,73.6,52.7,25.31,NE,37,5.8,5.8,48,0.00,,---,0.00,VWS V14.01,2013-07-05 16:10:00,
2013-07-05 10:12:00,73.6,52.7,25.31,ENE,78,5.8,6.3,48,0.00,,---,0.00,VWS V14.01,2013-07-05 16:12:00,
2013-07-05 10:15:00,73.6,52.7,25.31,NE,44,3.6,3.6,48,0.00,,---,0.00,VWS V14.01,2013-07-05 16:15:00,
2013-07-05 10:16:00,73.6,52.7,25.31,West,268,4.9,5.4,48,0.00,,---,0.00,VWS V14.01,2013-07-05 16:16:00,
2013-07-05 10:17:00,74.7,54.2,25.31,West,268,4.9,4.9,49,0.00,,---,0.00,VWS V14.01,2013-07-05 16:17:00,
2013-07-05 10:21:00,75.4,53.2,25.31,East,90,5.8,5.8,46,0.00,,---,0.00,VWS V14.01,2013-07-05 16:21:00,
2013-07-05 10:23:00,75.4,53.2,25.31,NNE,31,3.6,5.8,46,0.00,,---,0.00,VWS V14.01,2013-07-05 16:23:00,
2013-07-05 10:24:00,75.4,51.3,25.31,NNE,31,6.3,6.3,43,0.00,,---,0.00,VWS V14.01,2013-07-05 16:24:00,
2013-07-05 10:26:00,75.4,51.3,25.31,East,88,5.4,8.3,43,0.00,,---,0.00,VWS V14.01,2013-07-05 16:26:00,
2013-07-05 10:27:00,75.0,48.4,25.31,SE,131,11.0,11.0,39,0.00,,---,0.00,VWS V14.01,2013-07-05 16:27:00,
2013-07-05 10:28:00,75.0,48.4,25.31,SE,124,5.4,11.0,39,0.00,,---,0.00,VWS V14.01,2013-07-05 16:28:00,
2013-07-05 10:33:00,75.0,48.4,25.28,ENE,71,6.3,7.2,39,0.00,,---,0.00,VWS V14.01,2013-07-05 16:33:00,
2013-07-05 10:34:00,73.8,51.1,25.28,NE,49,7.6,7.6,45,0.00,,---,0.00,VWS V14.01,2013-07-05 16:34:00,
2013-07-05 10:35:00,73.8,51.1,25.28,East,91,6.3,7.6,45,0.00,,---,0.00,VWS V14.01,2013-07-05 16:35:00,
2013-07-05 10:36:00,73.8,51.1,25.28,SE,143,8.7,10.1,45,0.00,,---,0.00,VWS V14.01,2013-07-05 16:36:00,
2013-07-05 10:38:00,73.8,51.1,25.28,East,100,5.4,5.4,45,0.00,,---,0.00,VWS V14.01,2013-07-05 16:38:00,
2013-07-05 10:40:00,73.8,51.1,25.28,East,91,3.1,3.1,45,0.00,,---,0.00,VWS V14.01,2013-07-05 16:40:00,
2013-07-05 10:42:00,73.6,54.4,25.28,West,279,2.7,3.1,51,0.00,,---,0.00,VWS V14.01,2013-07-05 16:42:00,
2013-07-05 10:46:00,75.0,52.9,25.28,SSW,195,4.0,4.0,46,0.00,,---,0.00,VWS V14.01,2013-07-05 16:46:00,
2013-07-05 10:47:00,75.0,52.9,25.28,NE,52,6.7,6.7,46,0.00,,---,0.00,VWS V14.01,2013-07-05 16:47:00,
2013-07-05 10:48:00,75.0,52.9,25.28,East,89,8.3,8.3,46,0.00,,---,0.00,VWS V14.01,2013-07-05 16:48:00,
2013-07-05 10:49:00,75.2,47.2,25.28,East,89,8.3,8.3,37,0.00,,---,0.00,VWS V14.01,2013-07-05 16:49:00,
2013-07-05 10:53:00,75.0,47.7,25.28,ESE,113,3.1,3.1,38,0.00,,---,0.00,VWS V14.01,2013-07-05 16:53:00,
2013-07-05 10:54:00,75.0,47.7,25.28,ESE,113,3.1,3.1,38,0.00,,---,0.00,VWS V14.01,2013-07-05 16:54:00,
2013-07-05 10:55:00,75.0,47.7,25.28,SE,135,6.3,6.3,38,0.00,,---,0.00,VWS V14.01,2013-07-05 16:55:00,
2013-07-05 10:56:00,74.8,47.6,25.28,SE,135,6.3,6.3,38,0.00,,---,0.00,VWS V14.01,2013-07-05 16:56:00,
2013-07-05 11:00:00,74.7,46.7,25.28,East,81,8.1,8.1,37,0.00,,---,0.00,VWS V14.01,2013-07-05 17:00:00,
2013-07-05 11:01:00,74.7,46.7,25.28,East,101,4.0,8.1,37,0.00,,---,0.00,VWS V14.01,2013-07-05 17:01:00,
2013-07-05 11:02:00,74.7,46.7,25.28,East,101,4.0,4.0,37,0.00,,---,0.00,VWS V14.01,2013-07-05 17:02:00,
2013-07-05 11:05:00,74.7,46.7,25.28,SE,142,4.9,4.9,37,0.00,,---,0.00,VWS V14.01,2013-07-05 17:05:00,
2013-07-05 11:07:00,75.2,47.2,25.28,East,83,5.4,5.4,37,0.00,,---,0.00,VWS V14.01,2013-07-05 17:07:00,
2013-07-05 11:09:00,75.4,48.0,25.28,ENE,60,2.7,6.3,38,0.00,,---,0.00,VWS V14.01,2013-07-05 17:09:00,
2013-07-05 11:10:00,75.4,48.0,25.28,ENE,60,2.7,2.7,38,0.00,,---,0.00,VWS V14.01,2013-07-05 17:10:00,
2013-07-05 11:14:00,75.9,47.8,25.28,East,90,4.5,4.5,37,0.00,,---,0.00,VWS V14.01,2013-07-05 17:14:00,
2013-07-05 11:15:00,75.6,48.2,25.28,ESE,120,6.7,6.7,38,0.00,,---,0.00,VWS V14.01,2013-07-05 17:15:00,
2013-07-05 11:17:00,75.6,48.2,25.28,East,97,4.0,6.7,38,0.00,,---,0.00,VWS V14.01,2013-07-05 17:17:00,
2013-07-05 11:18:00,75.6,48.2,25.28,East,97,4.0,4.0,38,0.00,,---,0.00,VWS V14.01,2013-07-05 17:18:00,
2013-07-05 11:22:00,74.5,49.3,25.28,East,88,4.0,4.9,41,0.00,,---,0.00,VWS V14.01,2013-07-05 17:22:00,
2013-07-05 11:23:00,74.5,49.3,25.28,East,83,2.7,4.0,41,0.00,,---,0.00,VWS V14.01,2013-07-05 17:23:00,
2013-07-05 11:24:00,74.3,48.4,25.28,East,84,2.7,4.0,40,0.00,,---,0.00,VWS V14.01,2013-07-05 17:24:00,
2013-07-05 11:27:00,74.3,47.8,25.28,ESE,106,3.6,3.6,39,0.00,,---,0.00,VWS V14.01,2013-07-05 17:27:00,
2013-07-05 11:28:00,74.3,47.8,25.28,ESE,106,3.6,3.6,39,0.00,,---,0.00,VWS V14.01,2013-07-05 17:28:00,
2013-07-05 11:32:00,74.3,47.8,25.28,NE,37,4.0,4.0,39,0.00,,---,0.00,VWS V14.01,2013-07-05 17:32:00,
2013-07-05 11:33:00,74.3,47.8,25.28,NNE,27,5.4,5.4,39,0.00,,---,0.00,VWS V14.01,2013-07-05 17:33:00,
2013-07-05 11:36:00,74.3,47.8,25.28,ENE,57,4.9,4.9,39,0.00,,---,0.00,VWS V14.01,2013-07-05 17:36:00,
2013-07-05 11:38:00,74.3,47.8,25.28,NW,326,4.0,4.0,39,0.00,,---,0.00,VWS V14.01,2013-07-05 17:38:00,
2013-07-05 11:41:00,73.6,53.3,25.28,SE,134,4.0,4.0,49,0.00,,---,0.00,VWS V14.01,2013-07-05 17:41:00,
2013-07-05 11:42:00,73.8,54.5,25.28,SE,134,4.0,4.0,51,0.00,,---,0.00,VWS V14.01,2013-07-05 17:42:00,
2013-07-05 11:44:00,73.8,54.5,25.28,North,357,2.7,2.7,51,0.00,,---,0.00,VWS V14.01,2013-07-05 17:44:00,
2013-07-05 11:47:00,73.8,54.5,25.28,NNE,19,2.2,2.7,51,0.00,,---,0.00,VWS V14.01,2013-07-05 17:47:00,
2013-07-05 11:49:00,73.8,54.5,25.28,NE,37,3.1,3.1,51,0.00,,---,0.00,VWS V14.01,2013-07-05 17:49:00,
2013-07-05 11:50:00,75.2,54.2,25.28,ENE,70,4.9,7.6,48,0.00,,---,0.00,VWS V14.01,2013-07-05 17:50:00,
2013-07-05 11:51:00,75.4,53.8,25.28,ESE,103,4.9,5.8,47,0.00,,---,0.00,VWS V14.01,2013-07-05 17:51:00,
2013-07-05 11:54:00,75.0,52.9,25.28,SE,132,4.9,5.8,46,0.00,,---,0.00,VWS V14.01,2013-07-05 17:54:00,
2013-07-05 11:55:00,75.0,52.9,25.28,SE,132,4.9,4.9,46,0.00,,---,0.00,VWS V14.01,2013-07-05 17:55:00,
2013-07-05 11:56:00,73.9,53.0,25.28,ESE,112,4.9,4.9,48,0.00,,---,0.00,VWS V14.01,2013-07-05 17:56:00,
2013-07-05 11:59:00,73.2,54.6,25.28,ENE,58,3.6,4.9,52,0.00,,---,0.00,VWS V14.01,2013-07-05 17:59:00,
2013-07-05 12:01:00,73.2,54.6,25.28,East,89,3.1,3.1,52,0.00,,---,0.00,VWS V14.01,2013-07-05 18:01:00,
2013-07-05 12:03:00,73.2,54.6,25.28,North,353,5.4,5.4,52,0.00,,---,0.00,VWS V14.01,2013-07-05 18:03:00,
2013-07-05 12:04:00,73.2,54.6,25.28,NNW,330,3.1,5.4,52,0.00,,---,0.00,VWS V14.01,2013-07-05 18:04:00,
2013-07-05 12:05:00,72.9,53.7,25.28,NNW,330,3.1,3.1,51,0.00,,---,0.00,VWS V14.01,2013-07-05 18:05:00,
2013-07-05 12:07:00,72.9,53.7,25.28,NE,39,3.1,3.1,51,0.00,,---,0.00,VWS V14.01,2013-07-05 18:07:00,
2013-07-05 12:09:00,72.9,53.7,25.28,NE,55,3.6,3.6,51,0.00,,---,0.00,VWS V14.01,2013-07-05 18:09:00,
2013-07-05 12:10:00,72.9,53.7,25.28,NE,42,3.6,3.6,51,0.00,,---,0.00,VWS V14.01,2013-07-05 18:10:00,
2013-07-05 12:11:00,72.9,53.7,25.28,East,96,3.6,3.6,51,0.00,,---,0.00,VWS V14.01,2013-07-05 18:11:00,
2013-07-05 12:12:00,72.9,53.7,25.28,NE,50,2.2,3.6,51,0.00,,---,0.00,VWS V14.01,2013-07-05 18:12:00,
2013-07-05 12:14:00,72.9,53.7,25.28,SE,124,6.3,6.3,51,0.00,,---,0.00,VWS V14.01,2013-07-05 18:14:00,
2013-07-05 12:17:00,73.0,54.4,25.28,SE,130,5.8,5.8,52,0.00,,---,0.00,VWS V14.01,2013-07-05 18:17:00,
2013-07-05 12:19:00,73.0,54.4,25.28,ENE,62,2.7,2.7,52,0.00,,---,0.00,VWS V14.01,2013-07-05 18:19:00,
2013-07-05 12:20:00,73.0,53.9,25.28,ENE,62,2.7,2.7,51,0.00,,---,0.00,VWS V14.01,2013-07-05 18:20:00,
2013-07-05 12:25:00,73.0,54.4,25.28,East,85,5.8,5.8,52,0.00,,---,0.00,VWS V14.01,2013-07-05 18:25:00,
2013-07-05 12:26:00,73.0,54.4,25.28,East,85,5.8,5.8,52,0.00,,---,0.00,VWS V14.01,2013-07-05 18:26:00,
2013-07-05 12:28:00,73.0,54.4,25.28,East,79,3.1,3.1,52,0.00,,---,0.00,VWS V14.01,2013-07-05 18:28:00,
2013-07-05 12:30:00,73.0,54.4,25.28,SSE,152,4.0,4.5,52,0.00,,---,0.00,VWS V14.01,2013-07-05 18:30:00,
2013-07-05 12:32:00,72.5,54.9,25.28,NNE,26,3.6,4.0,54,0.00,,---,0.00,VWS V14.01,2013-07-05 18:32:00,
2013-07-05 12:33:00,72.5,55.9,25.28,NNE,26,3.6,3.6,56,0.00,,---,0.00,VWS V14.01,2013-07-05 18:33:00,
2013-07-05 12:39:00,73.2,55.6,25.25,ENE,75,2.7,5.4,54,0.00,,---,0.00,VWS V14.01,2013-07-05 18:39:00,
2013-07-05 12:40:00,73.2,55.1,25.25,ENE,75,2.7,2.7,53,0.00,,---,0.00,VWS V14.01,2013-07-05 18:40:00,
2013-07-05 12:41:00,73.2,55.1,25.25,ENE,75,2.7,2.7,53,0.00,,---,0.00,VWS V14.01,2013-07-05 18:41:00,
2013-07-05 12:46:00,73.6,53.3,25.25,ENE,78,3.6,3.6,49,0.00,,---,0.00,VWS V14.01,2013-07-05 18:46:00,
2013-07-05 12:47:00,73.6,53.3,25.25,ENE,78,3.6,3.6,49,0.00,,---,0.00,VWS V14.01,2013-07-05 18:47:00,
2013-07-05 12:49:00,73.6,53.3,25.25,SSE,160,4.0,4.0,49,0.00,,---,0.00,VWS V14.01,2013-07-05 18:49:00,
2013-07-05 12:51:00,73.6,53.3,25.25,ESE,113,3.1,3.1,49,0.00,,---,0.00,VWS V14.01,2013-07-05 18:51:00,
2013-07-05 12:52:00,73.2,52.9,25.25,ESE,102,4.0,4.0,49,0.00,,---,0.00,VWS V14.01,2013-07-05 18:52:00,
2013-07-05 12:54:00,73.2,52.9,25.25,ESE,117,3.1,3.1,49,0.00,,---,0.00,VWS V14.01,2013-07-05 18:54:00,
2013-07-05 12:57:00,73.0,55.4,25.25,NNE,30,3.6,3.6,54,0.00,,---,0.00,VWS V14.01,2013-07-05 18:57:00,
2013-07-05 12:58:00,73.0,55.4,25.25,East,96,5.8,5.8,54,0.00,,---,0.00,VWS V14.01,2013-07-05 18:58:00,
2013-07-05 13:00:00,73.2,55.1,25.25,ENE,77,2.7,4.0,53,0.00,,---,0.00,VWS V14.01,2013-07-05 19:00:00,
2013-07-05 13:01:00,73.2,55.1,25.25,ENE,77,2.7,2.7,53,0.00,,---,0.00,VWS V14.01,2013-07-05 19:01:00,
2013-07-05 13:04:00,73.2,55.1,25.25,NE,54,3.1,3.1,53,0.00,,---,0.00,VWS V14.01,2013-07-05 19:04:00,
2013-07-05 13:07:00,73.4,53.1,25.25,ENE,71,3.6,3.6,49,0.00,,---,0.00,VWS V14.01,2013-07-05 19:07:00,
2013-07-05 13:08:00,73.4,53.1,25.25,ENE,71,3.6,3.6,49,0.00,,---,0.00,VWS V14.01,2013-07-05 19:08:00,
2013-07-05 13:09:00,73.4,52.5,25.25,ENE,71,3.6,3.6,48,0.00,,---,0.00,VWS V14.01,2013-07-05 19:09:00,
2013-07-05 13:11:00,73.4,52.5,25.25,East,86,5.4,6.3,48,0.00,,---,0.00,VWS V14.01,2013-07-05 19:11:00,
2013-07-05 13:14:00,73.4,53.1,25.25,NNW,338,3.1,3.1,49,0.00,,---,0.00,VWS V14.01,2013-07-05 19:14:00,
2013-07-05 13:15:00,73.4,53.1,25.25,NNW,338,3.1,3.1,49,0.00,,---,0.00,VWS V14.01,2013-07-05 19:15:00,
2013-07-05 13:19:00,73.4,54.2,25.25,North,9,4.9,4.9,51,0.00,,---,0.00,VWS V14.01,2013-07-05 19:19:00,
2013-07-05 13:20:00,73.4,54.2,25.25,East,79,3.1,4.9,51,0.00,,---,0.00,VWS V14.01,2013-07-05 19:20:00,
2013-07-05 13:21:00,73.4,54.2,25.25,ENE,66,3.1,3.1,51,0.00,,---,0.00,VWS V14.01,2013-07-05 19:21:00,
2013-07-05 13:25:00,74.3,55.0,25.25,SE,124,4.9,4.9,51,0.00,,---,0.00,VWS V14.01,2013-07-05 19:25:00,
2013-07-05 13:26:00,74.3,55.0,25.25,North,353,3.1,4.9,51,0.00,,---,0.00,VWS V14.01,2013-07-05 19:26:00,
2013-07-05 13:27:00,74.3,55.0,25.25,North,353,3.1,3.1,51,0.00,,---,0.00,VWS V14.01,2013-07-05 19:27:00,
2013-07-05 13:30:00,75.7,53.5,25.25,NNE,30,3.6,3.6,46,0.00,,---,0.00,VWS V14.01,2013-07-05 19:30:00,
2013-07-05 13:32:00,76.3,53.4,25.25,East,98,3.1,3.6,45,0.00,,---,0.00,VWS V14.01,2013-07-05 19:32:00,
2013-07-05 13:35:00,76.3,52.8,25.25,North,7,4.0,4.0,44,0.00,,---,0.00,VWS V14.01,2013-07-05 19:35:00,
2013-07-05 13:36:00,76.3,52.8,25.25,North,353,3.6,4.0,44,0.00,,---,0.00,VWS V14.01,2013-07-05 19:36:00,
2013-07-05 13:37:00,76.3,52.8,25.25,North,1,2.7,3.6,44,0.00,,---,0.00,VWS V14.01,2013-07-05 19:37:00,
2013-07-05 13:38:00,77.2,53.6,25.25,North,1,2.7,2.7,44,0.00,,---,0.00,VWS V14.01,2013-07-05 19:38:00,
2013-07-05 13:40:00,77.2,53.6,25.25,NE,53,4.0,4.0,44,0.00,,---,0.00,VWS V14.01,2013-07-05 19:40:00,
2013-07-05 13:41:00,77.2,53.6,25.25,NE,53,4.0,4.0,44,0.00,,---,0.00,VWS V14.01,2013-07-05 19:41:00,
2013-07-05 13:42:00,77.2,53.6,25.25,NE,53,4.0,4.0,44,0.00,,---,0.00,VWS V14.01,2013-07-05 19:42:00,
2013-07-05 13:43:00,77.2,53.6,25.25,East,79,4.0,4.0,44,0.00,,---,0.00,VWS V14.01,2013-07-05 19:43:00,
2013-07-05 13:48:00,77.2,53.6,25.25,NNE,13,2.7,2.7,44,0.00,,---,0.00,VWS V14.01,2013-07-05 19:48:00,
2013-07-05 13:49:00,77.2,53.6,25.25,NNE,13,2.7,2.7,44,0.00,,---,0.00,VWS V14.01,2013-07-05 19:49:00,
2013-07-05 13:50:00,75.4,52.6,25.25,NNE,30,0.0,2.7,45,0.00,,---,0.00,VWS V14.01,2013-07-05 19:50:00,
2013-07-05 13:51:00,75.4,52.6,25.25,NNE,17,3.6,3.6,45,0.00,,---,0.00,VWS V14.01,2013-07-05 19:51:00,
2013-07-05 13:53:00,75.2,53.0,25.25,North,6,3.1,3.1,46,0.00,,---,0.00,VWS V14.01,2013-07-05 19:53:00,
2013-07-05 13:54:00,75.2,53.0,25.22,NE,41,3.6,3.6,46,0.00,,---,0.00,VWS V14.01,2013-07-05 19:54:00,
2013-07-05 13:57:00,74.8,52.1,25.22,NW,312,0.0,3.6,45,0.00,,---,0.00,VWS V14.01,2013-07-05 19:57:00,
2013-07-05 13:59:00,74.5,52.4,25.22,NE,39,5.4,5.4,46,0.00,,---,0.00,VWS V14.01,2013-07-05 19:59:00,
2013-07-05 14:02:00,74.5,52.4,25.22,NNW,344,3.6,4.9,46,0.00,,---,0.00,VWS V14.01,2013-07-05 20:02:00,
2013-07-05 14:03:00,74.5,52.4,25.22,East,95,4.0,4.0,46,0.00,,---,0.00,VWS V14.01,2013-07-05 20:03:00,
2013-07-05 14:07:00,73.9,52.5,25.22,ENE,64,3.1,3.1,47,0.00,,---,0.00,VWS V14.01,2013-07-05 20:07:00,
2013-07-05 14:08:00,73.9,52.5,25.22,ENE,74,3.6,3.6,47,0.00,,---,0.00,VWS V14.01,2013-07-05 20:08:00,
2013-07-05 14:11:00,73.9,52.5,25.22,ENE,61,4.0,5.4,47,0.00,,---,0.00,VWS V14.01,2013-07-05 20:11:00,
2013-07-05 14:12:00,73.4,53.1,25.22,ENE,61,4.0,4.0,49,0.00,,---,0.00,VWS V14.01,2013-07-05 20:12:00,
2013-07-05 14:14:00,73.4,53.1,25.22,East,87,3.1,4.0,49,0.00,,---,0.00,VWS V14.01,2013-07-05 20:14:00,
2013-07-05 14:16:00,73.4,53.1,25.22,East,87,3.1,3.1,49,0.00,,---,0.00,VWS V14.01,2013-07-05 20:16:00,
2013-07-05 14:17:00,73.6,53.3,25.22,East,87,3.1,3.1,49,0.00,,---,0.00,VWS V14.01,2013-07-05 20:17:00,
2013-07-05 14:18:00,73.6,53.3,25.22,NE,56,2.7,3.1,49,0.00,,---,0.00,VWS V14.01,2013-07-05 20:18:00,
2013-07-05 14:21:00,73.6,53.3,25.22,ESE,117,5.8,5.8,49,0.00,,---,0.00,VWS V14.01,2013-07-05 20:21:00,
2013-07-05 14:23:00,73.0,53.3,25.22,ESE,122,3.1,5.8,50,0.00,,---,0.00,VWS V14.01,2013-07-05 20:23:00,
2013-07-05 14:25:00,72.5,52.8,25.22,NE,49,2.7,3.1,50,0.00,,---,0.00,VWS V14.01,2013-07-05 20:25:00,
2013-07-05 14:29:00,72.0,52.9,25.22,NE,49,2.7,2.7,51,0.00,,---,0.00,VWS V14.01,2013-07-05 20:29:00,
2013-07-05 14:31:00,72.0,52.9,25.22,SE,136,8.7,8.7,51,0.00,,---,0.00,VWS V14.01,2013-07-05 20:31:00,
2013-07-05 14:32:00,72.0,52.9,25.22,ESE,104,3.6,8.7,51,0.00,,---,0.00,VWS V14.01,2013-07-05 20:32:00,
2013-07-05 14:36:00,70.7,55.7,25.22,ESE,110,4.0,4.0,59,0.00,,---,0.00,VWS V14.01,2013-07-05 20:36:00,
2013-07-05 14:37:00,70.7,55.7,25.22,ESE,117,3.6,4.0,59,0.00,,---,0.00,VWS V14.01,2013-07-05 20:37:00,
2013-07-05 14:40:00,69.8,56.2,25.22,SE,137,4.9,4.9,62,0.00,,---,0.00,VWS V14.01,2013-07-05 20:40:00,
2013-07-05 14:41:00,69.8,56.2,25.22,SE,139,4.0,4.9,62,0.00,,---,0.00,VWS V14.01,2013-07-05 20:41:00,
2013-07-05 14:43:00,69.8,56.2,25.22,East,83,5.4,5.4,62,0.00,,---,0.00,VWS V14.01,2013-07-05 20:43:00,
2013-07-05 14:44:00,69.8,56.2,25.22,East,83,5.4,5.4,62,0.00,,---,0.00,VWS V14.01,2013-07-05 20:44:00,
2013-07-05 14:47:00,69.8,56.2,25.22,SE,137,2.7,2.7,62,0.00,,---,0.00,VWS V14.01,2013-07-05 20:47:00,
2013-07-05 14:51:00,69.3,56.6,25.22,SE,128,0.0,0.0,64,0.00,,---,0.00,VWS V14.01,2013-07-05 20:51:00,
2013-07-05 14:52:00,69.3,56.6,25.22,East,82,2.7,2.7,64,0.00,,---,0.00,VWS V14.01,2013-07-05 20:52:00,
2013-07-05 14:53:00,69.3,56.6,25.22,East,82,2.7,2.7,64,0.00,,---,0.00,VWS V14.01,2013-07-05 20:53:00,
2013-07-05 14:55:00,69.3,56.6,25.22,East,82,0.0,0.0,64,0.00,,---,0.00,VWS V14.01,2013-07-05 20:55:00,
2013-07-05 14:57:00,69.6,56.5,25.22,East,82,0.0,0.0,63,0.00,,---,0.00,VWS V14.01,2013-07-05 20:57:00,
2013-07-05 14:58:00,69.6,56.5,25.22,East,82,0.0,0.0,63,0.00,,---,0.00,VWS V14.01,2013-07-05 20:58:00,
2013-07-05 14:59:00,70.0,56.8,25.22,ENE,78,3.1,3.1,63,0.00,,---,0.00,VWS V14.01,2013-07-05 20:59:00,
2013-07-05 15:02:00,70.2,57.0,25.22,ENE,78,3.1,3.1,63,0.00,,---,0.00,VWS V14.01,2013-07-05 21:02:00,
2013-07-05 15:03:00,70.2,57.0,25.22,ENE,78,3.1,3.1,63,0.00,,---,0.00,VWS V14.01,2013-07-05 21:03:00,
2013-07-05 15:06:00,70.2,57.0,25.22,SE,139,2.7,3.1,63,0.00,,---,0.00,VWS V14.01,2013-07-05 21:06:00,
2013-07-05 15:09:00,70.2,57.0,25.22,SSE,165,4.9,4.9,63,0.00,,---,0.00,VWS V14.01,2013-07-05 21:09:00,
2013-07-05 15:10:00,70.2,57.0,25.22,ENE,77,6.3,6.3,63,0.00,,---,0.00,VWS V14.01,2013-07-05 21:10:00,
2013-07-05 15:12:00,70.2,57.0,25.22,ENE,77,6.3,6.3,63,0.00,,---,0.00,VWS V14.01,2013-07-05 21:12:00,
2013-07-05 15:15:00,70.2,57.0,25.22,ENE,77,4.0,5.4,63,0.00,,---,0.00,VWS V14.01,2013-07-05 21:15:00,
2013-07-05 15:17:00,70.3,53.9,25.22,ESE,109,5.4,5.4,56,0.00,,---,0.00,VWS V14.01,2013-07-05 21:17:00,
2013-07-05 15:18:00,70.3,53.9,25.22,East,82,2.7,5.4,56,0.00,,---,0.00,VWS V14.01,2013-07-05 21:18:00,
2013-07-05 15:20:00,70.3,53.9,25.22,SE,127,5.8,5.8,56,0.00,,---,0.00,VWS V14.01,2013-07-05 21:20:00,
2013-07-05 15:21:00,70.3,53.9,25.22,ESE,102,8.1,8.1,56,0.00,,---,0.00,VWS V14.01,2013-07-05 21:21:00,
2013-07-05 15:22:00,70.3,53.9,25.22,ESE,102,8.1,8.1,56,0.00,,---,0.00,VWS V14.01,2013-07-05 21:22:00,
2013-07-05 15:24:00,70.3,53.9,25.22,SSE,152,2.7,4.9,56,0.00,,---,0.00,VWS V14.01,2013-07-05 21:24:00,
2013-07-05 15:28:00,69.6,54.7,25.22,SSE,152,3.1,3.1,59,0.00,,---,0.00,VWS V14.01,2013-07-05 21:28:00,
2013-07-05 15:29:00,69.6,54.7,25.22,SSE,152,3.1,3.1,59,0.00,,---,0.00,VWS V14.01,2013-07-05 21:29:00,
2013-07-05 15:31:00,69.4,55.4,25.22,ESE,114,3.1,6.3,61,0.00,,---,0.00,VWS V14.01,2013-07-05 21:31:00,
2013-07-05 15:35:00,69.4,55.9,25.22,ESE,114,3.1,3.1,62,0.00,,---,0.00,VWS V14.01,2013-07-05 21:35:00,
2013-07-05 15:36:00,69.4,55.9,25.22,ESE,114,3.1,3.1,62,0.00,,---,0.00,VWS V14.01,2013-07-05 21:36:00,
2013-07-05 15:38:00,69.6,56.5,25.22,ESE,114,3.1,3.1,63,0.00,,---,0.00,VWS V14.01,2013-07-05 21:38:00,
2013-07-05 15:40:00,69.8,56.7,25.22,ENE,60,3.1,4.0,63,0.00,,---,0.00,VWS V14.01,2013-07-05 21:40:00,
2013-07-05 15:41:00,69.8,56.7,25.22,East,86,0.0,3.1,63,0.00,,---,0.00,VWS V14.01,2013-07-05 21:41:00,
2013-07-05 15:42:00,69.8,56.7,25.22,ENE,64,3.6,3.6,63,0.00,,---,0.00,VWS V14.01,2013-07-05 21:42:00,
2013-07-05 15:44:00,69.8,56.7,25.22,ENE,64,2.7,2.7,63,0.00,,---,0.00,VWS V14.01,2013-07-05 21:44:00,
2013-07-05 15:47:00,69.8,56.7,25.22,East,82,5.8,5.8,63,0.00,,---,0.00,VWS V14.01,2013-07-05 21:47:00,
2013-07-05 15:49:00,69.4,57.2,25.22,SE,132,3.6,5.8,65,0.00,,---,0.00,VWS V14.01,2013-07-05 21:49:00,
2013-07-05 15:50:00,69.4,57.2,25.22,SE,132,3.6,3.6,65,0.00,,---,0.00,VWS V14.01,2013-07-05 21:50:00,
2013-07-05 15:51:00,68.9,57.5,25.22,SE,132,3.6,3.6,67,0.00,,---,0.00,VWS V14.01,2013-07-05 21:51:00,
2013-07-05 15:52:00,68.9,57.5,25.22,SE,132,3.6,3.6,67,0.00,,---,0.00,VWS V14.01,2013-07-05 21:52:00,
2013-07-05 15:54:00,67.8,57.3,25.22,SSE,152,3.1,3.6,69,0.00,,---,0.00,VWS V14.01,2013-07-05 21:54:00,
2013-07-05 15:57:00,67.5,57.7,25.22,SE,135,3.6,3.6,71,0.00,,---,0.00,VWS V14.01,2013-07-05 21:57:00,
2013-07-05 15:58:00,67.5,57.7,25.22,East,79,2.7,3.6,71,0.00,,---,0.00,VWS V14.01,2013-07-05 21:58:00,
2013-07-05 15:59:00,67.1,58.9,25.22,ENE,57,2.7,4.0,75,0.00,,---,0.00,VWS V14.01,2013-07-05 21:59:00,
2013-07-05 16:00:00,66.9,58.4,25.22,East,92,2.7,2.7,74,0.00,,---,0.00,VWS V14.01,2013-07-05 22:00:00,
2013-07-05 16:04:00,66.7,58.9,25.22,East,92,0.0,0.0,76,0.00,,---,0.00,VWS V14.01,2013-07-05 22:04:00,
2013-07-05 16:05:00,66.7,58.9,25.22,East,93,0.0,0.0,76,0.00,,---,0.00,VWS V14.01,2013-07-05 22:05:00,
2013-07-05 16:07:00,66.7,58.9,25.22,East,92,2.7,3.1,76,0.00,,---,0.00,VWS V14.01,2013-07-05 22:07:00,
2013-07-05 16:10:00,66.7,58.9,25.22,East,95,4.9,4.9,76,0.04,,---,0.04,VWS V14.01,2013-07-05 22:10:00,
2013-07-05 16:11:00,66.6,60.2,25.22,SE,125,4.0,6.3,80,0.04,,---,0.04,VWS V14.01,2013-07-05 22:11:00,
2013-07-05 16:12:00,66.4,60.0,25.22,North,8,2.2,4.0,80,0.04,,---,0.04,VWS V14.01,2013-07-05 22:12:00,
2013-07-05 16:16:00,66.2,59.9,25.22,ESE,102,3.1,5.4,80,0.04,,---,0.04,VWS V14.01,2013-07-05 22:16:00,
2013-07-05 16:17:00,66.2,59.9,25.22,ESE,102,3.1,3.1,80,0.04,,---,0.04,VWS V14.01,2013-07-05 22:17:00,
2013-07-05 16:19:00,66.2,60.9,25.22,NE,37,3.1,3.1,83,0.04,,---,0.04,VWS V14.01,2013-07-05 22:19:00,
2013-07-05 16:21:00,66.0,61.0,25.22,ESE,104,2.2,4.0,84,0.04,,---,0.04,VWS V14.01,2013-07-05 22:21:00,
2013-07-05 16:23:00,66.2,61.2,25.22,East,93,2.7,2.7,84,0.04,,---,0.04,VWS V14.01,2013-07-05 22:23:00,
2013-07-05 16:26:00,66.2,61.2,25.22,East,93,0.0,0.0,84,0.04,,---,0.04,VWS V14.01,2013-07-05 22:26:00,
2013-07-05 16:27:00,66.2,61.2,25.22,East,93,0.0,0.0,84,0.04,,---,0.04,VWS V14.01,2013-07-05 22:27:00,
2013-07-05 16:29:00,66.2,61.2,25.22,SSE,150,0.0,2.2,84,0.04,,---,0.04,VWS V14.01,2013-07-05 22:29:00,
2013-07-05 16:30:00,66.2,61.2,25.22,SSE,150,3.1,3.1,84,0.04,,---,0.04,VWS V14.01,2013-07-05 22:30:00,
2013-07-05 16:35:00,66.4,62.1,25.22,SSW,211,2.7,4.0,86,0.04,,---,0.04,VWS V14.01,2013-07-05 22:35:00,
2013-07-05 16:36:00,66.4,62.1,25.22,SSW,211,0.0,2.7,86,0.04,,---,0.04,VWS V14.01,2013-07-05 22:36:00,
2013-07-05 16:37:00,66.4,62.1,25.22,South,181,2.2,2.2,86,0.04,,---,0.04,VWS V14.01,2013-07-05 22:37:00,
2013-07-05 16:38:00,66.4,62.1,25.22,SSW,211,0.0,3.1,86,0.04,,---,0.04,VWS V14.01,2013-07-05 22:38:00,
2013-07-05 16:41:00,66.6,62.2,25.22,SSW,211,2.2,2.2,86,0.04,,---,0.04,VWS V14.01,2013-07-05 22:41:00,
2013-07-05 16:43:00,66.6,62.2,25.22,SE,145,3.1,3.1,86,0.04,,---,0.04,VWS V14.01,2013-07-05 22:43:00,
2013-07-05 16:44:00,66.2,60.5,25.22,NE,54,3.1,3.1,82,0.04,,---,0.04,VWS V14.01,2013-07-05 22:44:00,
2013-07-05 16:47:00,66.4,61.1,25.22,ENE,70,3.1,3.6,83,0.04,,---,0.04,VWS V14.01,2013-07-05 22:47:00,
2013-07-05 16:49:00,66.4,61.1,25.19,ENE,61,0.0,2.2,83,0.04,,---,0.04,VWS V14.01,2013-07-05 22:49:00,
2013-07-05 16:50:00,66.4,61.1,25.19,ENE,61,0.0,0.0,83,0.04,,---,0.04,VWS V14.01,2013-07-05 22:50:00,
2013-07-05 16:52:00,66.4,61.1,25.19,ENE,61,0.0,2.2,83,0.04,,---,0.04,VWS V14.01,2013-07-05 22:52:00,
2013-07-05 16:53:00,66.4,61.1,25.19,ESE,108,3.1,3.1,83,0.04,,---,0.04,VWS V14.01,2013-07-05 22:53:00,
2013-07-05 16:56:00,66.4,61.1,25.19,ESE,119,2.7,3.1,83,0.04,,---,0.04,VWS V14.01,2013-07-05 22:56:00,
2013-07-05 16:58:00,66.4,61.1,25.19,ESE,119,0.0,2.2,83,0.04,,---,0.04,VWS V14.01,2013-07-05 22:58:00,
2013-07-05 16:59:00,66.4,61.1,25.19,East,79,2.7,2.7,83,0.04,,---,0.04,VWS V14.01,2013-07-05 22:59:00,
2013-07-05 17:01:00,66.4,61.1,25.19,ESE,102,4.0,4.0,83,0.04,,---,0.04,VWS V14.01,2013-07-05 23:01:00,
2013-07-05 17:03:00,66.4,61.1,25.19,ESE,106,0.0,2.2,83,0.04,,---,0.04,VWS V14.01,2013-07-05 23:03:00,
2013-07-05 17:05:00,66.4,61.4,25.19,SE,141,3.6,3.6,84,0.04,,---,0.04,VWS V14.01,2013-07-05 23:05:00,
2013-07-05 17:07:00,66.2,61.2,25.19,East,85,3.6,4.0,84,0.04,,---,0.04,VWS V14.01,2013-07-05 23:07:00,
2013-07-05 17:08:00,66.2,61.2,25.19,East,85,2.7,3.6,84,0.04,,---,0.04,VWS V14.01,2013-07-05 23:08:00,
2013-07-05 17:12:00,66.2,61.2,25.19,SE,130,5.4,5.4,84,0.00,,---,0.04,VWS V14.01,2013-07-05 23:12:00,
2013-07-05 17:13:00,66.0,61.0,25.19,SE,131,2.7,5.4,84,0.00,,---,0.04,VWS V14.01,2013-07-05 23:13:00,
2013-07-05 17:16:00,66.0,61.0,25.19,ESE,123,3.6,4.0,84,0.00,,---,0.04,VWS V14.01,2013-07-05 23:16:00,
2013-07-05 17:17:00,66.0,61.0,25.19,ESE,123,3.6,3.6,84,0.00,,---,0.04,VWS V14.01,2013-07-05 23:17:00,
2013-07-05 17:19:00,66.0,61.0,25.19,South,176,2.2,4.9,84,0.00,,---,0.04,VWS V14.01,2013-07-05 23:19:00,
2013-07-05 17:20:00,66.0,61.0,25.19,South,176,0.0,2.2,84,0.00,,---,0.04,VWS V14.01,2013-07-05 23:20:00,
2013-07-05 17:24:00,66.0,61.0,25.19,South,176,0.0,0.0,84,0.00,,---,0.04,VWS V14.01,2013-07-05 23:24:00,
2013-07-05 17:25:00,66.0,61.0,25.19,ESE,103,4.0,4.0,84,0.00,,---,0.04,VWS V14.01,2013-07-05 23:25:00,
2013-07-05 17:28:00,66.0,60.7,25.19,SE,135,2.7,2.7,83,0.04,,---,0.08,VWS V14.01,2013-07-05 23:28:00,
2013-07-05 17:29:00,66.0,60.7,25.19,SE,135,2.7,2.7,83,0.04,,---,0.08,VWS V14.01,2013-07-05 23:29:00,
2013-07-05 17:30:00,66.0,60.7,25.19,SE,135,2.7,2.7,83,0.04,,---,0.08,VWS V14.01,2013-07-05 23:30:00,
2013-07-05 17:32:00,65.8,60.5,25.19,SSE,150,3.6,4.9,83,0.04,,---,0.08,VWS V14.01,2013-07-05 23:32:00,
2013-07-05 17:33:00,65.8,60.5,25.19,SSE,150,3.6,3.6,83,0.04,,---,0.08,VWS V14.01,2013-07-05 23:33:00,
2013-07-05 17:38:00,65.8,60.5,25.19,SSE,150,0.0,0.0,83,0.04,,---,0.08,VWS V14.01,2013-07-05 23:38:00,
2013-07-05 17:39:00,65.8,60.5,25.19,SSE,150,0.0,0.0,83,0.04,,---,0.08,VWS V14.01,2013-07-05 23:39:00,
2013-07-05 17:40:00,65.8,60.5,25.19,SSE,150,0.0,0.0,83,0.04,,---,0.08,VWS V14.01,2013-07-05 23:40:00,
2013-07-05 17:43:00,65.8,60.5,25.19,SSE,150,0.0,0.0,83,0.04,,---,0.08,VWS V14.01,2013-07-05 23:43:00,
2013-07-05 17:44:00,65.8,60.5,25.19,SSE,150,0.0,0.0,83,0.04,,---,0.08,VWS V14.01,2013-07-05 23:44:00,
2013-07-05 17:46:00,65.7,60.4,25.19,SSE,150,0.0,0.0,83,0.04,,---,0.08,VWS V14.01,2013-07-05 23:46:00,
2013-07-05 17:48:00,65.7,60.4,25.19,SSE,150,0.0,0.0,83,0.04,,---,0.08,VWS V14.01,2013-07-05 23:48:00,
2013-07-05 17:49:00,65.7,60.4,25.19,SSE,150,0.0,0.0,83,0.04,,---,0.08,VWS V14.01,2013-07-05 23:49:00,
2013-07-05 17:51:00,65.7,60.4,25.19,SSE,150,0.0,0.0,83,0.04,,---,0.08,VWS V14.01,2013-07-05 23:51:00,
2013-07-05 17:52:00,65.7,60.4,25.19,ESE,117,4.0,4.0,83,0.04,,---,0.08,VWS V14.01,2013-07-05 23:52:00,
2013-07-05 17:54:00,65.5,60.5,25.19,ESE,111,5.4,5.4,84,0.04,,---,0.08,VWS V14.01,2013-07-05 23:54:00,
2013-07-05 17:56:00,65.5,60.9,25.19,ESE,112,0.0,2.7,85,0.04,,---,0.08,VWS V14.01,2013-07-05 23:56:00,
2013-07-05 17:57:00,65.5,60.9,25.19,ESE,115,2.7,2.7,85,0.04,,---,0.08,VWS V14.01,2013-07-05 23:57:00,
2013-07-05 17:58:00,65.5,60.9,25.19,ESE,104,0.0,2.7,85,0.04,,---,0.08,VWS V14.01,2013-07-05 23:58:00,
2013-07-05 18:03:00,65.3,60.7,25.19,ESE,104,0.0,0.0,85,0.04,,---,0.08,VWS V14.01,2013-07-06 00:03:00,
2013-07-05 18:04:00,65.3,60.7,25.19,ESE,104,0.0,0.0,85,0.04,,---,0.08,VWS V14.01,2013-07-06 00:04:00,
2013-07-05 18:06:00,65.3,60.7,25.19,ESE,104,0.0,0.0,85,0.04,,---,0.08,VWS V14.01,2013-07-06 00:06:00,
2013-07-05 18:08:00,65.1,60.5,25.22,ESE,104,0.0,0.0,85,0.04,,---,0.08,VWS V14.01,2013-07-06 00:08:00,
2013-07-05 18:10:00,65.1,60.5,25.22,ESE,104,0.0,0.0,85,0.04,,---,0.08,VWS V14.01,2013-07-06 00:10:00,
2013-07-05 18:11:00,65.1,60.5,25.22,ESE,104,0.0,0.0,85,0.04,,---,0.08,VWS V14.01,2013-07-06 00:11:00,
2013-07-05 18:12:00,65.1,60.5,25.22,ESE,104,0.0,0.0,85,0.04,,---,0.08,VWS V14.01,2013-07-06 00:12:00,
2013-07-05 18:17:00,64.9,60.7,25.22,ESE,104,0.0,0.0,86,0.04,,---,0.08,VWS V14.01,2013-07-06 00:17:00,
2013-07-05 18:18:00,64.9,60.7,25.22,SE,124,4.0,4.0,86,0.04,,---,0.08,VWS V14.01,2013-07-06 00:18:00,
2013-07-05 18:20:00,64.9,60.7,25.22,SE,124,4.0,4.0,86,0.04,,---,0.08,VWS V14.01,2013-07-06 00:20:00,
2013-07-05 18:22:00,64.8,60.5,25.22,ESE,112,2.7,2.7,86,0.04,,---,0.08,VWS V14.01,2013-07-06 00:22:00,
2013-07-05 18:25:00,64.8,60.5,25.22,ESE,111,3.6,3.6,86,0.04,,---,0.08,VWS V14.01,2013-07-06 00:25:00,
2013-07-05 18:26:00,64.8,60.5,25.22,ESE,111,3.6,3.6,86,0.04,,---,0.08,VWS V14.01,2013-07-06 00:26:00,
2013-07-05 18:28:00,64.8,60.5,25.22,ESE,113,3.6,3.6,86,0.00,,---,0.08,VWS V14.01,2013-07-06 00:28:00,
2013-07-05 18:29:00,64.8,60.5,25.22,East,82,2.2,5.4,86,0.00,,---,0.08,VWS V14.01,2013-07-06 00:29:00,
2013-07-05 18:30:00,64.8,60.5,25.22,East,82,2.2,2.2,86,0.00,,---,0.08,VWS V14.01,2013-07-06 00:30:00,
2013-07-05 18:33:00,64.8,60.5,25.22,East,83,0.0,0.0,86,0.00,,---,0.08,VWS V14.01,2013-07-06 00:33:00,
2013-07-05 18:34:00,64.8,60.5,25.22,SE,145,4.0,4.0,86,0.00,,---,0.08,VWS V14.01,2013-07-06 00:34:00,
2013-07-05 18:35:00,64.8,60.5,25.22,ESE,110,3.1,4.0,86,0.00,,---,0.08,VWS V14.01,2013-07-06 00:35:00,
2013-07-05 18:38:00,64.6,59.6,25.22,ENE,72,2.2,3.1,84,0.00,,---,0.08,VWS V14.01,2013-07-06 00:38:00,
2013-07-05 18:39:00,64.6,59.6,25.22,ENE,72,2.2,2.2,84,0.00,,---,0.08,VWS V14.01,2013-07-06 00:39:00,
2013-07-05 18:40:00,64.8,59.8,25.22,ENE,72,2.2,2.2,84,0.00,,---,0.08,VWS V14.01,2013-07-06 00:40:00,
2013-07-05 18:43:00,64.6,59.6,25.22,SSE,168,2.7,2.7,84,0.00,,---,0.08,VWS V14.01,2013-07-06 00:43:00,
2013-07-05 18:45:00,64.6,59.3,25.22,East,96,4.9,6.3,83,0.00,,---,0.08,VWS V14.01,2013-07-06 00:45:00,
2013-07-05 18:46:00,64.6,59.3,25.22,East,88,3.6,4.9,83,0.00,,---,0.08,VWS V14.01,2013-07-06 00:46:00,
2013-07-05 18:47:00,64.6,59.3,25.22,East,91,2.2,3.6,83,0.00,,---,0.08,VWS V14.01,2013-07-06 00:47:00,
2013-07-05 18:50:00,64.6,59.3,25.22,ESE,116,4.0,4.0,83,0.00,,---,0.08,VWS V14.01,2013-07-06 00:50:00,
2013-07-05 18:51:00,64.6,59.3,25.22,ESE,116,4.0,4.0,83,0.00,,---,0.08,VWS V14.01,2013-07-06 00:51:00,
2013-07-05 18:53:00,64.6,59.0,25.22,East,98,8.7,8.7,82,0.00,,---,0.08,VWS V14.01,2013-07-06 00:53:00,
2013-07-05 18:55:00,64.6,59.0,25.22,ESE,113,2.2,2.2,82,0.00,,---,0.08,VWS V14.01,2013-07-06 00:55:00,
2013-07-05 18:57:00,64.6,59.0,25.22,East,85,5.4,5.4,82,0.00,,---,0.08,VWS V14.01,2013-07-06 00:57:00,
2013-07-05 18:58:00,64.6,59.0,25.22,ENE,67,2.2,5.4,82,0.00,,---,0.08,VWS V14.01,2013-07-06 00:58:00,
2013-07-05 18:59:00,64.6,59.0,25.22,SSE,151,3.1,3.1,82,0.00,,---,0.08,VWS V14.01,2013-07-06 00:59:00,
2013-07-05 19:00:00,64.6,59.0,25.22,SE,130,0.0,3.1,82,0.00,,---,0.08,VWS V14.01,2013-07-06 01:00:00,
2013-07-05 19:01:00,64.4,58.8,25.22,SE,130,0.0,0.0,82,0.00,,---,0.08,VWS V14.01,2013-07-06 01:01:00,
2013-07-05 19:05:00,64.4,58.8,25.22,East,85,2.2,2.2,82,0.00,,---,0.08,VWS V14.01,2013-07-06 01:05:00,
2013-07-05 19:06:00,64.4,58.8,25.22,East,85,2.2,2.2,82,0.00,,---,0.08,VWS V14.01,2013-07-06 01:06:00,
2013-07-05 19:08:00,64.2,59.0,25.22,ESE,108,5.4,5.4,83,0.00,,---,0.08,VWS V14.01,2013-07-06 01:08:00,
2013-07-05 19:09:00,64.2,59.0,25.22,ESE,108,5.4,5.4,83,0.00,,---,0.08,VWS V14.01,2013-07-06 01:09:00,
2013-07-05 19:13:00,64.2,59.0,25.22,SE,129,3.1,3.1,83,0.00,,---,0.08,VWS V14.01,2013-07-06 01:13:00,
2013-07-05 19:14:00,64.2,59.0,25.22,SE,129,3.1,3.1,83,0.00,,---,0.08,VWS V14.01,2013-07-06 01:14:00,
2013-07-05 19:16:00,64.0,58.8,25.22,WSW,257,0.0,2.7,83,0.00,,---,0.08,VWS V14.01,2013-07-06 01:16:00,
2013-07-05 19:18:00,63.9,58.6,25.22,ESE,121,4.0,5.4,83,0.00,,---,0.08,VWS V14.01,2013-07-06 01:18:00,
2013-07-05 19:19:00,63.9,58.6,25.22,SSE,168,6.3,6.3,83,0.00,,---,0.08,VWS V14.01,2013-07-06 01:19:00,
2013-07-05 19:20:00,64.0,58.4,25.22,East,92,3.1,6.3,82,0.00,,---,0.08,VWS V14.01,2013-07-06 01:20:00,
2013-07-05 19:23:00,64.2,58.3,25.22,South,176,2.7,3.1,81,0.00,,---,0.08,VWS V14.01,2013-07-06 01:23:00,
2013-07-05 19:24:00,64.2,58.3,25.22,South,176,2.7,2.7,81,0.00,,---,0.08,VWS V14.01,2013-07-06 01:24:00,
2013-07-05 19:25:00,64.2,58.3,25.22,ESE,117,5.8,8.3,81,0.00,,---,0.08,VWS V14.01,2013-07-06 01:25:00,
2013-07-05 19:28:00,64.2,57.6,25.22,ESE,120,8.1,8.1,79,0.00,,---,0.08,VWS V14.01,2013-07-06 01:28:00,
2013-07-05 19:29:00,64.2,57.6,25.22,ENE,70,2.2,8.1,79,0.00,,---,0.08,VWS V14.01,2013-07-06 01:29:00,
2013-07-05 19:30:00,64.4,57.4,25.22,ENE,70,2.2,2.2,78,0.00,,---,0.08,VWS V14.01,2013-07-06 01:30:00,
2013-07-05 19:31:00,64.4,57.4,25.22,ENE,70,2.2,2.2,78,0.00,,---,0.08,VWS V14.01,2013-07-06 01:31:00,
2013-07-05 19:35:00,64.4,57.0,25.22,ESE,109,2.7,5.8,77,0.00,,---,0.08,VWS V14.01,2013-07-06 01:35:00,
2013-07-05 19:36:00,64.4,57.0,25.22,NNE,26,2.2,2.7,77,0.00,,---,0.08,VWS V14.01,2013-07-06 01:36:00,
2013-07-05 19:37:00,64.4,57.0,25.22,NW,325,0.0,2.7,77,0.00,,---,0.08,VWS V14.01,2013-07-06 01:37:00,
2013-07-05 19:38:00,64.4,57.0,25.22,NW,325,0.0,0.0,77,0.00,,---,0.08,VWS V14.01,2013-07-06 01:38:00,
2013-07-05 19:41:00,64.4,56.7,25.22,SE,146,0.0,0.0,76,0.00,,---,0.08,VWS V14.01,2013-07-06 01:41:00,
2013-07-05 19:43:00,64.4,56.7,25.22,SSE,154,5.4,5.4,76,0.00,,---,0.08,VWS V14.01,2013-07-06 01:43:00,
2013-07-05 19:46:00,64.4,56.3,25.22,South,191,2.7,8.3,75,0.00,,---,0.08,VWS V14.01,2013-07-06 01:46:00,
2013-07-05 19:47:00,64.4,56.3,25.22,ESE,104,5.4,5.4,75,0.00,,---,0.08,VWS V14.01,2013-07-06 01:47:00,
2013-07-05 19:48:00,64.4,56.3,25.22,East,86,10.1,10.1,75,0.00,,---,0.08,VWS V14.01,2013-07-06 01:48:00,
2013-07-05 19:49:00,64.6,56.1,25.22,East,86,10.1,10.1,74,0.00,,---,0.08,VWS V14.01,2013-07-06 01:49:00,
2013-07-05 19:50:00,64.6,56.5,25.22,ENE,62,6.3,10.1,75,0.00,,---,0.08,VWS V14.01,2013-07-06 01:50:00,
2013-07-05 19:56:00,64.8,56.3,25.22,ESE,107,3.1,6.3,74,0.00,,---,0.08,VWS V14.01,2013-07-06 01:56:00,
2013-07-05 19:57:00,64.8,56.3,25.22,ESE,107,3.1,3.1,74,0.00,,---,0.08,VWS V14.01,2013-07-06 01:57:00,
2013-07-05 19:58:00,64.8,56.3,25.22,SE,146,3.1,5.4,74,0.00,,---,0.08,VWS V14.01,2013-07-06 01:58:00,
2013-07-05 20:02:00,64.8,56.3,25.22,ESE,104,8.3,8.3,74,0.00,,---,0.08,VWS V14.01,2013-07-06 02:02:00,
2013-07-05 20:03:00,64.6,56.8,25.22,NE,39,4.0,8.3,76,0.00,,---,0.08,VWS V14.01,2013-07-06 02:03:00,
2013-07-05 20:04:00,64.6,56.8,25.25,East,91,3.1,4.0,76,0.00,,---,0.08,VWS V14.01,2013-07-06 02:04:00,
2013-07-05 20:05:00,64.6,56.8,25.25,East,91,3.1,3.1,76,0.00,,---,0.08,VWS V14.01,2013-07-06 02:05:00,
2013-07-05 20:08:00,64.6,57.2,25.25,SSE,152,3.6,3.6,77,0.00,,---,0.08,VWS V14.01,2013-07-06 02:08:00,
2013-07-05 20:09:00,64.6,57.2,25.25,East,95,3.6,3.6,77,0.00,,---,0.08,VWS V14.01,2013-07-06 02:09:00,
2013-07-05 20:13:00,64.4,57.0,25.25,East,79,2.7,2.7,77,0.00,,---,0.08,VWS V14.01,2013-07-06 02:13:00,
2013-07-05 20:14:00,64.4,57.0,25.25,East,93,3.6,3.6,77,0.00,,---,0.08,VWS V14.01,2013-07-06 02:14:00,
2013-07-05 20:15:00,64.4,57.0,25.25,East,80,3.6,3.6,77,0.00,,---,0.08,VWS V14.01,2013-07-06 02:15:00,
2013-07-05 20:16:00,64.4,57.0,25.25,East,80,3.6,3.6,77,0.00,,---,0.08,VWS V14.01,2013-07-06 02:16:00,
2013-07-05 20:20:00,64.2,57.2,25.25,ESE,105,0.0,2.7,78,0.00,,---,0.08,VWS V14.01,2013-07-06 02:20:00,
2013-07-05 20:21:00,64.2,57.2,25.25,ESE,105,2.2,2.2,78,0.00,,---,0.08,VWS V14.01,2013-07-06 02:21:00,
2013-07-05 20:24:00,64.2,57.2,25.22,ESE,105,0.0,0.0,78,0.00,,---,0.08,VWS V14.01,2013-07-06 02:24:00,
2013-07-05 20:25:00,64.0,57.0,25.22,SE,141,0.0,0.0,78,0.00,,---,0.08,VWS V14.01,2013-07-06 02:25:00,
2013-07-05 20:27:00,64.0,57.0,25.22,SE,141,0.0,0.0,78,0.00,,---,0.08,VWS V14.01,2013-07-06 02:27:00,
2013-07-05 20:30:00,63.7,56.7,25.22,SE,141,2.2,2.2,78,0.00,,---,0.08,VWS V14.01,2013-07-06 02:30:00,
2013-07-05 20:33:00,63.3,56.7,25.22,SE,141,0.0,0.0,79,0.00,,---,0.08,VWS V14.01,2013-07-06 02:33:00,
2013-07-05 20:35:00,63.1,56.5,25.22,SE,141,0.0,0.0,79,0.00,,---,0.08,VWS V14.01,2013-07-06 02:35:00,
2013-07-05 20:37:00,63.0,56.3,25.22,SE,141,0.0,0.0,79,0.00,,---,0.08,VWS V14.01,2013-07-06 02:37:00,
2013-07-05 20:38:00,62.8,56.2,25.22,SE,141,0.0,0.0,79,0.00,,---,0.08,VWS V14.01,2013-07-06 02:38:00,
2013-07-05 20:40:00,62.6,56.0,25.22,SE,141,0.0,0.0,79,0.00,,---,0.08,VWS V14.01,2013-07-06 02:40:00,
2013-07-05 20:42:00,62.4,56.2,25.22,SE,141,2.2,2.2,80,0.00,,---,0.08,VWS V14.01,2013-07-06 02:42:00,
2013-07-05 20:44:00,62.4,56.5,25.22,SE,136,2.2,4.0,81,0.00,,---,0.08,VWS V14.01,2013-07-06 02:44:00,
2013-07-05 20:47:00,62.4,56.5,25.22,ENE,72,0.0,0.0,81,0.00,,---,0.08,VWS V14.01,2013-07-06 02:47:00,
2013-07-05 20:49:00,62.4,56.5,25.22,ENE,60,0.0,2.7,81,0.00,,---,0.08,VWS V14.01,2013-07-06 02:49:00,
2013-07-05 20:51:00,62.4,57.2,25.22,SE,125,2.7,2.7,83,0.00,,---,0.08,VWS V14.01,2013-07-06 02:51:00,
2013-07-05 20:53:00,62.4,57.5,25.22,East,81,0.0,3.1,84,0.00,,---,0.08,VWS V14.01,2013-07-06 02:53:00,
2013-07-05 20:55:00,62.6,57.7,25.22,East,87,4.0,4.0,84,0.00,,---,0.08,VWS V14.01,2013-07-06 02:55:00,
2013-07-05 20:57:00,62.8,57.9,25.22,East,87,4.0,4.0,84,0.00,,---,0.08,VWS V14.01,2013-07-06 02:57:00,
2013-07-05 20:59:00,63.0,58.1,25.22,SE,142,4.0,8.3,84,0.00,,---,0.08,VWS V14.01,2013-07-06 02:59:00,
2013-07-05 21:04:00,63.7,57.8,25.22,NE,51,8.7,10.5,81,0.00,,---,0.08,VWS V14.01,2013-07-06 03:04:00,
2013-07-05 21:07:00,64.0,58.1,25.22,SE,133,2.2,3.6,81,0.00,,---,0.08,VWS V14.01,2013-07-06 03:07:00,
2013-07-05 21:09:00,64.0,57.8,25.22,SE,130,0.0,4.9,80,0.00,,---,0.08,VWS V14.01,2013-07-06 03:09:00,
2013-07-05 21:12:00,64.0,57.8,25.22,ESE,120,4.0,5.8,80,0.00,,---,0.08,VWS V14.01,2013-07-06 03:12:00,
2013-07-05 21:13:00,64.2,57.6,25.22,ESE,112,3.1,4.0,79,0.00,,---,0.08,VWS V14.01,2013-07-06 03:13:00,
2013-07-05 21:17:00,64.2,57.6,25.22,SE,138,3.6,3.6,79,0.00,,---,0.08,VWS V14.01,2013-07-06 03:17:00,
2013-07-05 21:18:00,64.2,57.6,25.22,ESE,104,4.0,4.0,79,0.00,,---,0.08,VWS V14.01,2013-07-06 03:18:00,
2013-07-05 21:19:00,64.2,57.2,25.22,ESE,104,4.0,4.0,78,0.00,,---,0.08,VWS V14.01,2013-07-06 03:19:00,
2013-07-05 21:20:00,64.2,57.2,25.22,SSE,163,5.8,5.8,78,0.00,,---,0.08,VWS V14.01,2013-07-06 03:20:00,
2013-07-05 21:23:00,64.2,57.2,25.25,ESE,121,4.0,4.0,78,0.00,,---,0.08,VWS V14.01,2013-07-06 03:23:00,
2013-07-05 21:25:00,64.4,57.0,25.25,ESE,123,5.4,5.4,77,0.00,,---,0.08,VWS V14.01,2013-07-06 03:25:00,
2013-07-05 21:26:00,64.4,57.0,25.25,South,172,2.2,5.4,77,0.00,,---,0.08,VWS V14.01,2013-07-06 03:26:00,
2013-07-05 21:28:00,64.4,57.0,25.25,ESE,108,3.1,3.6,77,0.00,,---,0.08,VWS V14.01,2013-07-06 03:28:00,
2013-07-05 21:31:00,64.4,57.0,25.25,SE,146,6.7,6.7,77,0.00,,---,0.08,VWS V14.01,2013-07-06 03:31:00,
2013-07-05 21:33:00,64.4,57.0,25.25,SE,140,5.4,5.8,77,0.00,,---,0.08,VWS V14.01,2013-07-06 03:33:00,
2013-07-05 21:34:00,64.4,57.0,25.25,ENE,78,3.1,5.4,77,0.00,,---,0.08,VWS V14.01,2013-07-06 03:34:00,
2013-07-05 21:38:00,64.2,57.6,25.25,East,79,4.9,4.9,79,0.00,,---,0.08,VWS V14.01,2013-07-06 03:38:00,
2013-07-05 21:39:00,64.2,57.9,25.25,NE,44,3.1,6.3,80,0.00,,---,0.08,VWS V14.01,2013-07-06 03:39:00,
2013-07-05 21:40:00,64.2,57.9,25.25,NE,49,5.8,5.8,80,0.00,,---,0.08,VWS V14.01,2013-07-06 03:40:00,
2013-07-05 21:42:00,64.2,57.9,25.25,East,97,4.0,5.8,80,0.00,,---,0.08,VWS V14.01,2013-07-06 03:42:00,
2013-07-05 21:46:00,64.0,58.1,25.25,East,88,4.5,4.5,81,0.00,,---,0.08,VWS V14.01,2013-07-06 03:46:00,
2013-07-05 21:48:00,64.0,58.1,25.25,ENE,73,4.9,4.9,81,0.00,,---,0.08,VWS V14.01,2013-07-06 03:48:00,
2013-07-05 21:50:00,63.9,58.3,25.25,ESE,111,2.2,4.9,82,0.00,,---,0.08,VWS V14.01,2013-07-06 03:50:00,
2013-07-05 21:51:00,63.9,58.3,25.25,SSE,163,3.1,3.1,82,0.00,,---,0.08,VWS V14.01,2013-07-06 03:51:00,
2013-07-05 21:52:00,63.9,58.3,25.25,East,101,4.9,4.9,82,0.00,,---,0.08,VWS V14.01,2013-07-06 03:52:00,
2013-07-05 21:56:00,63.9,57.9,25.25,ESE,102,0.0,0.0,81,0.00,,---,0.08,VWS V14.01,2013-07-06 03:56:00,
2013-07-05 21:57:00,63.9,57.9,25.25,East,82,7.6,7.6,81,0.00,,---,0.08,VWS V14.01,2013-07-06 03:57:00,
2013-07-05 21:58:00,63.9,57.9,25.25,East,94,6.3,7.6,81,0.00,,---,0.08,VWS V14.01,2013-07-06 03:58:00,
2013-07-05 22:00:00,63.9,57.6,25.25,East,89,4.0,5.8,80,0.00,,---,0.08,VWS V14.01,2013-07-06 04:00:00,
2013-07-05 22:01:00,63.9,57.6,25.25,ENE,78,7.2,7.2,80,0.00,,---,0.08,VWS V14.01,2013-07-06 04:01:00,
2013-07-05 22:02:00,64.0,57.4,25.25,ESE,119,5.8,7.2,79,0.00,,---,0.08,VWS V14.01,2013-07-06 04:02:00,
2013-07-05 22:03:00,64.0,57.4,25.25,ESE,119,5.8,5.8,79,0.00,,---,0.08,VWS V14.01,2013-07-06 04:03:00,
2013-07-05 22:08:00,64.2,57.2,25.25,NW,318,2.7,2.7,78,0.00,,---,0.08,VWS V14.01,2013-07-06 04:08:00,
2013-07-05 22:09:00,64.2,57.2,25.25,ENE,64,5.4,5.4,78,0.00,,---,0.08,VWS V14.01,2013-07-06 04:09:00,
2013-07-05 22:13:00,64.4,56.7,25.25,NE,47,8.3,8.3,76,0.00,,---,0.08,VWS V14.01,2013-07-06 04:13:00,
2013-07-05 22:14:00,64.4,56.7,25.25,ESE,122,6.3,8.3,76,0.00,,---,0.08,VWS V14.01,2013-07-06 04:14:00,
2013-07-05 22:15:00,64.4,55.9,25.25,ESE,122,6.3,6.3,74,0.00,,---,0.08,VWS V14.01,2013-07-06 04:15:00,
2013-07-05 22:18:00,64.4,55.9,25.25,SSE,165,2.7,2.7,74,0.00,,---,0.08,VWS V14.01,2013-07-06 04:18:00,
2013-07-05 22:20:00,64.4,55.9,25.25,ESE,118,5.8,5.8,74,0.00,,---,0.08,VWS V14.01,2013-07-06 04:20:00,
2013-07-05 22:21:00,64.4,55.9,25.25,SE,146,5.8,5.8,74,0.00,,---,0.08,VWS V14.01,2013-07-06 04:21:00,
2013-07-05 22:22:00,64.4,55.9,25.25,SSW,192,8.1,8.1,74,0.00,,---,0.08,VWS V14.01,2013-07-06 04:22:00,
2013-07-05 22:24:00,64.6,55.7,25.25,ESE,110,8.3,11.0,73,0.00,,---,0.08,VWS V14.01,2013-07-06 04:24:00,
2013-07-05 22:28:00,64.6,55.7,25.25,East,98,6.3,6.3,73,0.00,,---,0.08,VWS V14.01,2013-07-06 04:28:00,
2013-07-05 22:29:00,64.6,55.7,25.25,East,98,6.3,6.3,73,0.00,,---,0.08,VWS V14.01,2013-07-06 04:29:00,
2013-07-05 22:30:00,64.6,55.7,25.25,East,98,6.3,6.3,73,0.00,,---,0.08,VWS V14.01,2013-07-06 04:30:00,
2013-07-05 22:33:00,64.6,55.7,25.25,SE,125,7.6,8.7,73,0.00,,---,0.08,VWS V14.01,2013-07-06 04:33:00,
2013-07-05 22:34:00,64.6,55.7,25.25,SE,124,3.1,7.6,73,0.00,,---,0.08,VWS V14.01,2013-07-06 04:34:00,
2013-07-05 22:39:00,64.8,56.3,25.25,ESE,106,3.1,3.1,74,0.00,,---,0.08,VWS V14.01,2013-07-06 04:39:00,
2013-07-05 22:40:00,64.8,56.3,25.25,ESE,110,3.6,3.6,74,0.00,,---,0.08,VWS V14.01,2013-07-06 04:40:00,
2013-07-05 22:41:00,64.6,56.1,25.25,SE,139,3.6,3.6,74,0.00,,---,0.08,VWS V14.01,2013-07-06 04:41:00,
2013-07-05 22:43:00,64.6,56.1,25.25,East,92,3.1,3.1,74,0.00,,---,0.08,VWS V14.01,2013-07-06 04:43:00,
2013-07-05 22:46:00,64.6,56.1,25.25,SE,141,2.7,2.7,74,0.00,,---,0.08,VWS V14.01,2013-07-06 04:46:00,
2013-07-05 22:47:00,64.6,56.1,25.25,SE,141,0.0,2.7,74,0.00,,---,0.08,VWS V14.01,2013-07-06 04:47:00,
2013-07-05 22:48:00,64.2,56.9,25.25,ESE,110,4.9,4.9,77,0.00,,---,0.08,VWS V14.01,2013-07-06 04:48:00,
2013-07-05 22:51:00,64.2,57.2,25.25,East,96,3.6,6.3,78,0.00,,---,0.08,VWS V14.01,2013-07-06 04:51:00,
2013-07-05 22:52:00,64.2,57.9,25.25,NNE,24,4.0,4.0,80,0.00,,---,0.08,VWS V14.01,2013-07-06 04:52:00,
2013-07-05 22:53:00,64.2,57.9,25.25,NE,44,3.6,4.0,80,0.00,,---,0.08,VWS V14.01,2013-07-06 04:53:00,
2013-07-05 22:57:00,63.9,57.9,25.25,ESE,106,5.4,5.4,81,0.00,,---,0.08,VWS V14.01,2013-07-06 04:57:00,
2013-07-05 22:58:00,63.7,57.8,25.25,ESE,106,5.4,5.4,81,0.00,,---,0.08,VWS V14.01,2013-07-06 04:58:00,
2013-07-05 23:00:00,63.5,57.6,25.25,ESE,113,2.7,2.7,81,0.00,,---,0.08,VWS V14.01,2013-07-06 05:00:00,
2013-07-05 23:01:00,63.5,57.6,25.25,ESE,119,2.7,2.7,81,0.00,,---,0.08,VWS V14.01,2013-07-06 05:01:00,
2013-07-05 23:03:00,63.5,57.6,25.25,East,84,4.0,4.9,81,0.00,,---,0.08,VWS V14.01,2013-07-06 05:03:00,
2013-07-05 23:05:00,63.5,57.9,25.25,SE,136,3.1,3.1,82,0.00,,---,0.08,VWS V14.01,2013-07-06 05:05:00,
2013-07-05 23:06:00,63.5,57.9,25.25,East,85,2.7,3.1,82,0.00,,---,0.08,VWS V14.01,2013-07-06 05:06:00,
2013-07-05 23:09:00,63.5,57.9,25.25,East,84,2.2,4.0,82,0.00,,---,0.08,VWS V14.01,2013-07-06 05:09:00,
2013-07-05 23:12:00,63.3,57.7,25.25,SE,143,2.7,2.7,82,0.00,,---,0.08,VWS V14.01,2013-07-06 05:12:00,
2013-07-05 23:13:00,63.3,57.7,25.25,NE,50,3.1,3.1,82,0.00,,---,0.08,VWS V14.01,2013-07-06 05:13:00,
2013-07-05 23:14:00,63.3,57.7,25.25,ENE,64,2.7,3.1,82,0.00,,---,0.08,VWS V14.01,2013-07-06 05:14:00,
2013-07-05 23:19:00,63.1,57.2,25.25,SE,128,4.0,4.0,81,0.00,,---,0.08,VWS V14.01,2013-07-06 05:19:00,
2013-07-05 23:20:00,63.1,57.2,25.25,ESE,111,3.6,4.0,81,0.00,,---,0.08,VWS V14.01,2013-07-06 05:20:00,
2013-07-05 23:21:00,63.1,57.2,25.25,East,86,4.9,4.9,81,0.00,,---,0.08,VWS V14.01,2013-07-06 05:21:00,
2013-07-05 23:24:00,63.1,56.9,25.25,ESE,103,2.7,2.7,80,0.00,,---,0.08,VWS V14.01,2013-07-06 05:24:00,
2013-07-05 23:25:00,63.1,56.9,25.25,East,91,2.7,2.7,80,0.00,,---,0.08,VWS V14.01,2013-07-06 05:25:00,
2013-07-05 23:26:00,63.1,56.9,25.25,NE,56,0.0,4.0,80,0.00,,---,0.08,VWS V14.01,2013-07-06 05:26:00,
2013-07-05 23:30:00,63.0,56.7,25.25,East,91,4.0,4.0,80,0.00,,---,0.08,VWS V14.01,2013-07-06 05:30:00,
2013-07-05 23:31:00,63.0,56.7,25.25,East,91,4.0,4.0,80,0.00,,---,0.08,VWS V14.01,2013-07-06 05:31:00,
2013-07-05 23:33:00,63.0,57.0,25.25,ESE,122,2.7,5.4,81,0.00,,---,0.08,VWS V14.01,2013-07-06 05:33:00,
2013-07-05 23:34:00,63.0,57.0,25.25,East,83,6.3,6.3,81,0.00,,---,0.08,VWS V14.01,2013-07-06 05:34:00,
2013-07-05 23:35:00,63.0,57.0,25.25,ENE,70,7.6,8.1,81,0.00,,---,0.08,VWS V14.01,2013-07-06 05:35:00,
2013-07-05 23:38:00,63.1,57.6,25.25,ENE,70,8.3,8.3,82,0.00,,---,0.08,VWS V14.01,2013-07-06 05:38:00,
2013-07-05 23:39:00,63.1,57.9,25.25,ENE,70,8.3,8.3,83,0.00,,---,0.08,VWS V14.01,2013-07-06 05:39:00,
2013-07-05 23:40:00,63.3,58.1,25.25,North,1,3.6,8.3,83,0.00,,---,0.08,VWS V14.01,2013-07-06 05:40:00,
2013-07-05 23:42:00,63.3,58.1,25.25,ENE,75,4.0,5.8,83,0.00,,---,0.08,VWS V14.01,2013-07-06 05:42:00,
2013-07-05 23:44:00,63.3,58.1,25.25,ENE,67,4.0,4.0,83,0.00,,---,0.08,VWS V14.01,2013-07-06 05:44:00,
2013-07-05 23:46:00,63.3,58.1,25.25,NE,53,8.3,8.3,83,0.00,,---,0.08,VWS V14.01,2013-07-06 05:46:00,
2013-07-05 23:48:00,63.3,57.7,25.25,ESE,118,8.1,8.3,82,0.00,,---,0.08,VWS V14.01,2013-07-06 05:48:00,
2013-07-05 23:51:00,63.5,57.6,25.25,ENE,78,4.0,6.3,81,0.00,,---,0.08,VWS V14.01,2013-07-06 05:51:00,
2013-07-05 23:52:00,63.5,57.6,25.25,ENE,76,5.4,6.3,81,0.00,,---,0.08,VWS V14.01,2013-07-06 05:52:00,
2013-07-05 23:55:00,63.5,57.6,25.25,SE,128,8.1,8.1,81,0.00,,---,0.08,VWS V14.01,2013-07-06 05:55:00,
2013-07-05 23:56:00,63.5,57.6,25.25,ESE,120,4.0,8.1,81,0.00,,---,0.08,VWS V14.01,2013-07-06 05:56:00,
2013-07-05 23:58:00,63.5,57.2,25.25,East,97,3.6,3.6,80,0.00,,---,0.08,VWS V14.01,2013-07-06 05:58:00,
2013-07-05 23:59:00,63.5,57.2,25.25,East,97,3.6,3.6,80,0.00,,---,0.08,VWS V14.01,2013-07-06 05:59:00,